Time,TemperatureF,DewpointF,PressureIn,WindDirection,WindDirectionDegrees,WindSpeedMPH,WindSpeedGustMPH,Humidity,HourlyPrecipIn,Conditions,Clouds,dailyrainin,SolarRadiationWatts/m^2,SoftwareType,DateUTC
2013-07-18 00:01:00,77.7,73.5,30.18,WSW,241,0.0,0.0,87,0.00,,,0.00,0.00,VWS V14.01,2013-07-18 05:01:00,
2013-07-18 00:02:00,77.8,73.6,30.18,WSW,241,0.0,0.0,87,0.00,,,0.00,0.00,VWS V14.01,2013-07-18 05:02:00,
2013-07-18 00:04:00,77.9,73.7,30.18,WSW,241,0.0,2.3,87,0.00,,,0.00,0.00,VWS V14.01,2013-07-18 05:04:00,
2013-07-18 00:06:00,78.0,73.5,30.18,WSW,241,1.1,2.3,86,0.00,,,0.00,0.00,VWS V14.01,2013-07-18 05:06:00,
2013-07-18 00:07:00,78.2,73.7,30.18,WSW,241,2.3,2.3,86,0.00,,,0.00,0.00,VWS V14.01,2013-07-18 05:07:00,
2013-07-18 00:08:00,78.4,73.9,30.18,WSW,241,0.0,2.3,86,0.00,,,0.00,0.00,VWS V14.01,2013-07-18 05:08:00,
2013-07-18 00:10:00,78.6,73.7,30.18,WSW,241,0.0,1.1,85,0.00,,,0.00,0.00,VWS V14.01,2013-07-18 05:10:00,
2013-07-18 00:11:00,78.7,73.8,30.18,WSW,241,0.0,2.3,85,0.00,,,0.00,0.00,VWS V14.01,2013-07-18 05:11:00,
2013-07-18 00:12:00,78.7,73.8,30.18,WSW,241,1.1,1.1,85,0.00,,,0.00,0.00,VWS V14.01,2013-07-18 05:12:00,
2013-07-18 00:13:00,78.8,73.9,30.18,WSW,241,0.0,0.0,85,0.00,,,0.00,0.00,VWS V14.01,2013-07-18 05:13:00,
2013-07-18 00:15:00,78.8,73.9,30.18,WSW,241,0.0,0.0,85,0.00,,,0.00,0.00,VWS V14.01,2013-07-18 05:15:00,
2013-07-18 00:17:00,78.8,73.9,30.18,WSW,241,0.0,1.1,85,0.00,,,0.00,0.00,VWS V14.01,2013-07-18 05:17:00,
2013-07-18 00:18:00,78.8,73.9,30.18,WSW,241,1.1,1.1,85,0.00,,,0.00,0.00,VWS V14.01,2013-07-18 05:18:00,
2013-07-18 00:19:00,78.8,73.9,30.18,WSW,241,0.0,1.1,85,0.00,,,0.00,0.00,VWS V14.01,2013-07-18 05:19:00,
2013-07-18 00:20:00,78.7,73.8,30.18,WSW,241,0.0,1.1,85,0.00,,,0.00,0.00,VWS V14.01,2013-07-18 05:20:00,
2013-07-18 00:22:00,78.7,73.8,30.18,WSW,241,1.1,1.1,85,0.00,,,0.00,0.00,VWS V14.01,2013-07-18 05:22:00,
2013-07-18 00:23:00,78.6,73.7,30.18,WSW,241,0.0,3.4,85,0.00,,,0.00,0.00,VWS V14.01,2013-07-18 05:23:00,
2013-07-18 00:24:00,78.5,73.6,30.18,WSW,241,0.0,0.0,85,0.00,,,0.00,0.00,VWS V14.01,2013-07-18 05:24:00,
2013-07-18 00:25:00,78.5,73.6,30.18,WSW,241,1.1,1.1,85,0.00,,,0.00,0.00,VWS V14.01,2013-07-18 05:25:00,
2013-07-18 00:27:00,78.4,73.9,30.18,WSW,241,0.0,1.1,86,0.00,,,0.00,0.00,VWS V14.01,2013-07-18 05:27:00,
2013-07-18 00:28:00,78.3,73.8,30.18,WSW,241,0.0,0.0,86,0.00,,,0.00,0.00,VWS V14.01,2013-07-18 05:28:00,
2013-07-18 00:29:00,78.2,73.7,30.18,WSW,241,0.0,0.0,86,0.00,,,0.00,0.00,VWS V14.01,2013-07-18 05:29:00,
2013-07-18 00:31:00,78.0,73.5,30.18,WSW,241,0.0,1.1,86,0.00,,,0.00,0.00,VWS V14.01,2013-07-18 05:31:00,
2013-07-18 00:33:00,77.9,73.4,30.18,WSW,241,0.0,0.0,86,0.00,,,0.00,0.00,VWS V14.01,2013-07-18 05:33:00,
2013-07-18 00:34:00,77.9,73.7,30.18,WSW,241,0.0,0.0,87,0.00,,,0.00,0.00,VWS V14.01,2013-07-18 05:34:00,
2013-07-18 00:35:00,77.8,73.6,30.18,WSW,241,0.0,0.0,87,0.00,,,0.00,0.00,VWS V14.01,2013-07-18 05:35:00,
2013-07-18 00:37:00,77.8,73.6,30.18,WSW,241,0.0,0.0,87,0.00,,,0.00,0.00,VWS V14.01,2013-07-18 05:37:00,
2013-07-18 00:38:00,77.7,73.5,30.18,WSW,241,0.0,0.0,87,0.00,,,0.00,0.00,VWS V14.01,2013-07-18 05:38:00,
2013-07-18 00:39:00,77.6,73.4,30.18,WSW,241,0.0,0.0,87,0.00,,,0.00,0.00,VWS V14.01,2013-07-18 05:39:00,
2013-07-18 00:41:00,77.5,73.7,30.18,WSW,241,0.0,0.0,88,0.00,,,0.00,0.00,VWS V14.01,2013-07-18 05:41:00,
2013-07-18 00:43:00,77.4,73.6,30.18,WSW,241,0.0,0.0,88,0.00,,,0.00,0.00,VWS V14.01,2013-07-18 05:43:00,
2013-07-18 00:44:00,77.3,73.5,30.18,WSW,241,0.0,0.0,88,0.00,,,0.00,0.00,VWS V14.01,2013-07-18 05:44:00,
2013-07-18 00:45:00,77.3,73.5,30.18,WSW,241,0.0,0.0,88,0.00,,,0.00,0.00,VWS V14.01,2013-07-18 05:45:00,
2013-07-18 00:47:00,77.4,73.6,30.18,WSW,241,0.0,0.0,88,0.00,,,0.00,0.00,VWS V14.01,2013-07-18 05:47:00,
2013-07-18 00:49:00,77.4,73.6,30.18,WSW,241,0.0,1.1,88,0.00,,,0.00,0.00,VWS V14.01,2013-07-18 05:49:00,
2013-07-18 00:51:00,77.4,73.6,30.18,WSW,241,0.0,0.0,88,0.00,,,0.00,0.00,VWS V14.01,2013-07-18 05:51:00,
2013-07-18 00:52:00,77.3,73.5,30.18,WSW,241,0.0,2.3,88,0.00,,,0.00,0.00,VWS V14.01,2013-07-18 05:52:00,
2013-07-18 00:53:00,77.3,73.5,30.18,WSW,241,0.0,0.0,88,0.00,,,0.00,0.00,VWS V14.01,2013-07-18 05:53:00,
2013-07-18 00:54:00,77.3,73.5,30.18,WSW,241,2.3,2.3,88,0.00,,,0.00,0.00,VWS V14.01,2013-07-18 05:54:00,
2013-07-18 00:55:00,77.3,73.5,30.18,WSW,241,0.0,2.3,88,0.00,,,0.00,0.00,VWS V14.01,2013-07-18 05:55:00,
2013-07-18 00:56:00,77.2,73.4,30.18,WSW,241,0.0,0.0,88,0.00,,,0.00,0.00,VWS V14.01,2013-07-18 05:56:00,
2013-07-18 00:58:00,77.2,73.4,30.18,WSW,241,0.0,0.0,88,0.00,,,0.00,0.00,VWS V14.01,2013-07-18 05:58:00,
2013-07-18 00:59:00,77.2,73.4,30.18,WSW,241,0.0,0.0,88,0.00,,,0.00,0.00,VWS V14.01,2013-07-18 05:59:00,
2013-07-18 01:00:00,77.1,73.3,30.18,WSW,241,0.0,0.0,88,0.00,,,0.00,0.00,VWS V14.01,2013-07-18 06:00:00,
2013-07-18 01:01:00,77.2,73.4,30.18,WSW,241,0.0,0.0,88,0.00,,,0.00,0.00,VWS V14.01,2013-07-18 06:01:00,
2013-07-18 01:03:00,77.2,73.4,30.18,WSW,241,0.0,0.0,88,0.00,,,0.00,0.00,VWS V14.01,2013-07-18 06:03:00,
2013-07-18 01:05:00,77.2,73.4,30.18,WSW,241,0.0,1.1,88,0.00,,,0.00,0.00,VWS V14.01,2013-07-18 06:05:00,
2013-07-18 01:06:00,77.3,73.5,30.18,WSW,241,0.0,1.1,88,0.00,,,0.00,0.00,VWS V14.01,2013-07-18 06:06:00,
2013-07-18 01:09:00,77.5,73.7,30.18,WSW,241,1.1,1.1,88,0.00,,,0.00,0.00,VWS V14.01,2013-07-18 06:09:00,
2013-07-18 01:10:00,77.5,73.7,30.18,WSW,241,0.0,1.1,88,0.00,,,0.00,0.00,VWS V14.01,2013-07-18 06:10:00,
2013-07-18 01:11:00,77.5,73.7,30.18,WSW,241,0.0,0.0,88,0.00,,,0.00,0.00,VWS V14.01,2013-07-18 06:11:00,
2013-07-18 01:12:00,77.5,73.7,30.18,WSW,241,0.0,0.0,88,0.00,,,0.00,0.00,VWS V14.01,2013-07-18 06:12:00,
2013-07-18 01:15:00,77.4,73.6,30.18,WSW,241,0.0,0.0,88,0.00,,,0.00,0.00,VWS V14.01,2013-07-18 06:15:00,
2013-07-18 01:16:00,77.4,73.6,30.18,WSW,241,0.0,1.1,88,0.00,,,0.00,0.00,VWS V14.01,2013-07-18 06:16:00,
2013-07-18 01:17:00,77.4,73.6,30.18,WSW,241,1.1,1.1,88,0.00,,,0.00,0.00,VWS V14.01,2013-07-18 06:17:00,
2013-07-18 01:18:00,77.4,73.6,30.18,WSW,241,1.1,1.1,88,0.00,,,0.00,0.00,VWS V14.01,2013-07-18 06:18:00,
2013-07-18 01:20:00,77.3,73.5,30.18,WSW,241,0.0,1.1,88,0.00,,,0.00,0.00,VWS V14.01,2013-07-18 06:20:00,
2013-07-18 01:22:00,77.3,73.5,30.18,WSW,241,0.0,0.0,88,0.00,,,0.00,0.00,VWS V14.01,2013-07-18 06:22:00,
2013-07-18 01:23:00,77.3,73.5,30.18,WSW,241,1.1,1.1,88,0.00,,,0.00,0.00,VWS V14.01,2013-07-18 06:23:00,
2013-07-18 01:25:00,77.4,73.6,30.18,WSW,241,1.1,3.4,88,0.00,,,0.00,0.00,VWS V14.01,2013-07-18 06:25:00,
2013-07-18 01:27:00,77.5,73.7,30.18,WSW,241,2.3,2.3,88,0.00,,,0.00,0.00,VWS V14.01,2013-07-18 06:27:00,
2013-07-18 01:28:00,77.5,73.7,30.18,WSW,241,1.1,2.3,88,0.00,,,0.00,0.00,VWS V14.01,2013-07-18 06:28:00,
2013-07-18 01:29:00,77.6,73.8,30.18,WSW,241,1.1,1.1,88,0.00,,,0.00,0.00,VWS V14.01,2013-07-18 06:29:00,
2013-07-18 01:30:00,77.6,73.8,30.18,WSW,241,1.1,2.3,88,0.00,,,0.00,0.00,VWS V14.01,2013-07-18 06:30:00,
2013-07-18 01:33:00,77.8,73.6,30.17,WSW,241,1.1,1.1,87,0.00,,,0.00,0.00,VWS V14.01,2013-07-18 06:33:00,
2013-07-18 01:34:00,77.8,73.6,30.17,WSW,241,0.0,0.0,87,0.00,,,0.00,0.00,VWS V14.01,2013-07-18 06:34:00,
2013-07-18 01:35:00,77.8,73.6,30.17,WSW,241,0.0,0.0,87,0.00,,,0.00,0.00,VWS V14.01,2013-07-18 06:35:00,
2013-07-18 01:36:00,77.8,73.6,30.17,WSW,241,0.0,1.1,87,0.00,,,0.00,0.00,VWS V14.01,2013-07-18 06:36:00,
2013-07-18 01:38:00,77.9,74.1,30.17,WSW,241,0.0,0.0,88,0.00,,,0.00,0.00,VWS V14.01,2013-07-18 06:38:00,
2013-07-18 01:40:00,78.1,73.9,30.17,WSW,241,1.1,1.1,87,0.00,,,0.00,0.00,VWS V14.01,2013-07-18 06:40:00,
2013-07-18 01:41:00,78.2,74.0,30.17,WSW,241,0.0,0.0,87,0.00,,,0.00,0.00,VWS V14.01,2013-07-18 06:41:00,
2013-07-18 01:44:00,78.4,74.2,30.17,WSW,241,0.0,2.3,87,0.00,,,0.00,0.00,VWS V14.01,2013-07-18 06:44:00,
2013-07-18 01:45:00,78.5,74.0,30.17,WSW,241,0.0,0.0,86,0.00,,,0.00,0.00,VWS V14.01,2013-07-18 06:45:00,
2013-07-18 01:46:00,78.5,74.0,30.17,WSW,241,0.0,2.3,86,0.00,,,0.00,0.00,VWS V14.01,2013-07-18 06:46:00,
2013-07-18 01:48:00,78.6,74.1,30.17,WSW,241,0.0,0.0,86,0.00,,,0.00,0.00,VWS V14.01,2013-07-18 06:48:00,
2013-07-18 01:49:00,78.6,74.1,30.17,WSW,241,1.1,2.3,86,0.00,,,0.00,0.00,VWS V14.01,2013-07-18 06:49:00,
2013-07-18 01:50:00,78.6,74.1,30.17,WSW,241,1.1,3.4,86,0.00,,,0.00,0.00,VWS V14.01,2013-07-18 06:50:00,
2013-07-18 01:51:00,78.6,74.1,30.17,WSW,241,0.0,2.3,86,0.00,,,0.00,0.00,VWS V14.01,2013-07-18 06:51:00,
2013-07-18 01:53:00,78.6,74.1,30.17,WSW,241,1.1,1.1,86,0.00,,,0.00,0.00,VWS V14.01,2013-07-18 06:53:00,
2013-07-18 01:55:00,78.6,74.1,30.17,WSW,241,0.0,2.3,86,0.00,,,0.00,0.00,VWS V14.01,2013-07-18 06:55:00,
2013-07-18 01:56:00,78.6,74.1,30.17,WSW,241,1.1,1.1,86,0.00,,,0.00,0.00,VWS V14.01,2013-07-18 06:56:00,
2013-07-18 01:58:00,78.6,74.1,30.17,WSW,241,1.1,2.3,86,0.00,,,0.00,0.00,VWS V14.01,2013-07-18 06:58:00,
2013-07-18 01:59:00,78.6,74.1,30.17,WSW,241,1.1,1.1,86,0.00,,,0.00,0.00,VWS V14.01,2013-07-18 06:59:00,
2013-07-18 02:00:00,78.7,74.2,30.17,WSW,241,1.1,1.1,86,0.00,,,0.00,0.00,VWS V14.01,2013-07-18 07:00:00,
2013-07-18 02:02:00,78.7,74.2,30.17,WSW,241,1.1,1.1,86,0.00,,,0.00,0.00,VWS V14.01,2013-07-18 07:02:00,
2013-07-18 02:03:00,78.8,74.3,30.17,WSW,241,1.1,1.1,86,0.00,,,0.00,0.00,VWS V14.01,2013-07-18 07:03:00,
2013-07-18 02:04:00,78.7,74.2,30.17,WSW,241,1.1,2.3,86,0.00,,,0.00,0.00,VWS V14.01,2013-07-18 07:04:00,
2013-07-18 02:05:00,78.7,74.2,30.17,WSW,241,1.1,2.3,86,0.00,,,0.00,0.00,VWS V14.01,2013-07-18 07:05:00,
2013-07-18 02:07:00,78.5,74.0,30.17,WSW,241,0.0,0.0,86,0.00,,,0.00,0.00,VWS V14.01,2013-07-18 07:07:00,
2013-07-18 02:09:00,78.3,74.1,30.17,WSW,241,1.1,2.3,87,0.00,,,0.00,0.00,VWS V14.01,2013-07-18 07:09:00,
2013-07-18 02:10:00,78.3,74.1,30.17,WSW,241,1.1,1.1,87,0.00,,,0.00,0.00,VWS V14.01,2013-07-18 07:10:00,
2013-07-18 02:11:00,78.2,74.0,30.17,WSW,241,1.1,2.3,87,0.00,,,0.00,0.00,VWS V14.01,2013-07-18 07:11:00,
2013-07-18 02:12:00,78.1,73.9,30.17,WSW,241,2.3,2.3,87,0.00,,,0.00,0.00,VWS V14.01,2013-07-18 07:12:00,
2013-07-18 02:15:00,77.9,73.7,30.17,WSW,241,1.1,2.3,87,0.00,,,0.00,0.00,VWS V14.01,2013-07-18 07:15:00,
2013-07-18 02:16:00,77.9,73.7,30.17,WSW,241,1.1,1.1,87,0.00,,,0.00,0.00,VWS V14.01,2013-07-18 07:16:00,
2013-07-18 02:17:00,78.0,74.2,30.17,WSW,241,1.1,2.3,88,0.00,,,0.00,0.00,VWS V14.01,2013-07-18 07:17:00,
2013-07-18 02:20:00,78.1,74.3,30.17,WSW,241,0.0,1.1,88,0.00,,,0.00,0.00,VWS V14.01,2013-07-18 07:20:00,
2013-07-18 02:21:00,78.2,74.0,30.17,WSW,241,0.0,0.0,87,0.00,,,0.00,0.00,VWS V14.01,2013-07-18 07:21:00,
2013-07-18 02:22:00,78.2,74.0,30.17,WSW,241,0.0,1.1,87,0.00,,,0.00,0.00,VWS V14.01,2013-07-18 07:22:00,
2013-07-18 02:23:00,78.2,74.0,30.17,WSW,241,0.0,1.1,87,0.00,,,0.00,0.00,VWS V14.01,2013-07-18 07:23:00,
2013-07-18 02:25:00,78.3,74.1,30.17,WSW,241,0.0,1.1,87,0.00,,,0.00,0.00,VWS V14.01,2013-07-18 07:25:00,
2013-07-18 02:26:00,78.3,74.1,30.17,WSW,241,0.0,1.1,87,0.00,,,0.00,0.00,VWS V14.01,2013-07-18 07:26:00,
2013-07-18 02:27:00,78.3,74.1,30.17,WSW,241,1.1,1.1,87,0.00,,,0.00,0.00,VWS V14.01,2013-07-18 07:27:00,
2013-07-18 02:29:00,78.3,74.1,30.17,WSW,242,0.0,1.1,87,0.00,,,0.00,0.00,VWS V14.01,2013-07-18 07:29:00,
2013-07-18 02:31:00,78.2,74.0,30.17,WSW,242,0.0,1.1,87,0.00,,,0.00,0.00,VWS V14.01,2013-07-18 07:31:00,
2013-07-18 02:32:00,78.2,74.0,30.17,WSW,242,0.0,0.0,87,0.00,,,0.00,0.00,VWS V14.01,2013-07-18 07:32:00,
2013-07-18 02:33:00,78.2,74.4,30.17,WSW,242,0.0,0.0,88,0.00,,,0.00,0.00,VWS V14.01,2013-07-18 07:33:00,
2013-07-18 02:34:00,78.1,73.9,30.16,WSW,242,0.0,0.0,87,0.00,,,0.00,0.00,VWS V14.01,2013-07-18 07:34:00,
2013-07-18 02:37:00,77.8,74.0,30.16,WSW,242,0.0,2.3,88,0.00,,,0.00,0.00,VWS V14.01,2013-07-18 07:37:00,
2013-07-18 02:38:00,77.7,73.9,30.17,WSW,242,1.1,1.1,88,0.00,,,0.00,0.00,VWS V14.01,2013-07-18 07:38:00,
2013-07-18 02:39:00,77.5,73.7,30.16,WSW,242,0.0,1.1,88,0.00,,,0.00,0.00,VWS V14.01,2013-07-18 07:39:00,
2013-07-18 02:42:00,77.2,73.7,30.17,WSW,242,1.1,1.1,89,0.00,,,0.00,0.00,VWS V14.01,2013-07-18 07:42:00,
2013-07-18 02:44:00,77.1,73.6,30.16,WSW,240,0.0,0.0,89,0.00,,,0.00,0.00,VWS V14.01,2013-07-18 07:44:00,
2013-07-18 02:45:00,77.0,73.5,30.16,WSW,240,0.0,0.0,89,0.00,,,0.00,0.00,VWS V14.01,2013-07-18 07:45:00,
2013-07-18 02:47:00,76.9,73.4,30.16,WSW,240,0.0,1.1,89,0.00,,,0.00,0.00,VWS V14.01,2013-07-18 07:47:00,
2013-07-18 02:49:00,76.8,73.3,30.16,WSW,240,2.3,2.3,89,0.00,,,0.00,0.00,VWS V14.01,2013-07-18 07:49:00,
2013-07-18 02:50:00,76.7,73.2,30.16,WSW,240,3.4,3.4,89,0.00,,,0.00,0.00,VWS V14.01,2013-07-18 07:50:00,
2013-07-18 02:51:00,76.7,73.2,30.16,WSW,240,1.1,3.4,89,0.00,,,0.00,0.00,VWS V14.01,2013-07-18 07:51:00,
2013-07-18 02:54:00,76.7,73.2,30.16,WSW,240,1.1,1.1,89,0.00,,,0.00,0.00,VWS V14.01,2013-07-18 07:54:00,
2013-07-18 02:55:00,76.7,73.2,30.16,WSW,240,1.1,1.1,89,0.00,,,0.00,0.00,VWS V14.01,2013-07-18 07:55:00,
2013-07-18 02:56:00,76.7,73.2,30.16,WSW,240,1.1,2.3,89,0.00,,,0.00,0.00,VWS V14.01,2013-07-18 07:56:00,
2013-07-18 02:57:00,76.6,73.1,30.16,WSW,240,1.1,2.3,89,0.00,,,0.00,0.00,VWS V14.01,2013-07-18 07:57:00,
2013-07-18 03:00:00,76.6,73.4,30.16,WSW,240,0.0,1.1,90,0.00,,,0.00,0.00,VWS V14.01,2013-07-18 08:00:00,
2013-07-18 03:01:00,76.5,73.3,30.16,WSW,240,1.1,2.3,90,0.00,,,0.00,0.00,VWS V14.01,2013-07-18 08:01:00,
2013-07-18 03:03:00,76.4,73.2,30.16,WSW,240,0.0,1.1,90,0.00,,,0.00,0.00,VWS V14.01,2013-07-18 08:03:00,
2013-07-18 03:05:00,76.3,73.2,30.16,WSW,240,2.3,2.3,90,0.00,,,0.00,0.00,VWS V14.01,2013-07-18 08:05:00,
2013-07-18 03:06:00,76.3,73.2,30.16,WSW,240,2.3,2.3,90,0.00,,,0.00,0.00,VWS V14.01,2013-07-18 08:06:00,
2013-07-18 03:07:00,76.3,73.2,30.16,WSW,240,1.1,2.3,90,0.00,,,0.00,0.00,VWS V14.01,2013-07-18 08:07:00,
2013-07-18 03:09:00,76.2,73.1,30.16,WSW,240,0.0,1.1,90,0.00,,,0.00,0.00,VWS V14.01,2013-07-18 08:09:00,
2013-07-18 03:11:00,76.2,73.1,30.16,WSW,240,0.0,0.0,90,0.00,,,0.00,0.00,VWS V14.01,2013-07-18 08:11:00,
2013-07-18 03:13:00,76.2,73.1,30.16,WSW,240,0.0,1.1,90,0.00,,,0.00,0.00,VWS V14.01,2013-07-18 08:13:00,
2013-07-18 03:14:00,76.1,73.0,30.16,WSW,240,1.1,1.1,90,0.00,,,0.00,0.00,VWS V14.01,2013-07-18 08:14:00,
2013-07-18 03:16:00,76.0,72.9,30.16,WSW,240,0.0,0.0,90,0.00,,,0.00,0.00,VWS V14.01,2013-07-18 08:16:00,
2013-07-18 03:18:00,75.9,73.1,30.16,WSW,240,0.0,0.0,91,0.00,,,0.00,0.00,VWS V14.01,2013-07-18 08:18:00,
2013-07-18 03:19:00,75.9,73.1,30.16,WSW,240,1.1,1.1,91,0.00,,,0.00,0.00,VWS V14.01,2013-07-18 08:19:00,
2013-07-18 03:21:00,75.8,73.0,30.16,WSW,240,1.1,1.1,91,0.00,,,0.00,0.00,VWS V14.01,2013-07-18 08:21:00,
2013-07-18 03:22:00,75.8,73.0,30.16,WSW,239,1.1,3.4,91,0.00,,,0.00,0.00,VWS V14.01,2013-07-18 08:22:00,
2013-07-18 03:25:00,75.7,72.9,30.16,WSW,239,0.0,1.1,91,0.00,,,0.00,0.00,VWS V14.01,2013-07-18 08:25:00,
2013-07-18 03:26:00,75.7,72.9,30.16,WSW,239,0.0,0.0,91,0.00,,,0.00,0.00,VWS V14.01,2013-07-18 08:26:00,
2013-07-18 03:27:00,75.7,72.9,30.16,WSW,239,0.0,0.0,91,0.00,,,0.00,0.00,VWS V14.01,2013-07-18 08:27:00,
2013-07-18 03:30:00,75.6,72.8,30.16,WSW,239,0.0,1.1,91,0.00,,,0.00,0.00,VWS V14.01,2013-07-18 08:30:00,
2013-07-18 03:31:00,75.6,72.8,30.16,WSW,239,0.0,0.0,91,0.00,,,0.00,0.00,VWS V14.01,2013-07-18 08:31:00,
2013-07-18 03:32:00,75.5,72.7,30.16,WSW,239,0.0,0.0,91,0.00,,,0.00,0.00,VWS V14.01,2013-07-18 08:32:00,
2013-07-18 03:34:00,75.5,72.7,30.16,SW,235,0.0,1.1,91,0.00,,,0.00,0.00,VWS V14.01,2013-07-18 08:34:00,
2013-07-18 03:36:00,75.5,72.7,30.16,SW,235,1.1,2.3,91,0.00,,,0.00,0.00,VWS V14.01,2013-07-18 08:36:00,
2013-07-18 03:37:00,75.5,72.7,30.16,SW,235,1.1,2.3,91,0.00,,,0.00,0.00,VWS V14.01,2013-07-18 08:37:00,
2013-07-18 03:39:00,75.5,72.7,30.16,WSW,237,2.3,3.4,91,0.00,,,0.00,0.00,VWS V14.01,2013-07-18 08:39:00,
2013-07-18 03:42:00,75.6,72.8,30.15,WSW,237,0.0,2.3,91,0.00,,,0.00,0.00,VWS V14.01,2013-07-18 08:42:00,
2013-07-18 03:44:00,75.7,72.9,30.15,WSW,237,0.0,2.3,91,0.00,,,0.00,0.00,VWS V14.01,2013-07-18 08:44:00,
2013-07-18 03:45:00,75.6,72.8,30.16,WSW,237,3.4,3.4,91,0.00,,,0.00,0.00,VWS V14.01,2013-07-18 08:45:00,
2013-07-18 03:47:00,75.6,72.8,30.16,WSW,237,2.3,4.6,91,0.00,,,0.00,0.00,VWS V14.01,2013-07-18 08:47:00,
2013-07-18 03:49:00,75.6,72.8,30.16,WSW,237,0.0,1.1,91,0.00,,,0.00,0.00,VWS V14.01,2013-07-18 08:49:00,
2013-07-18 03:50:00,75.6,72.8,30.16,WSW,237,0.0,0.0,91,0.00,,,0.00,0.00,VWS V14.01,2013-07-18 08:50:00,
2013-07-18 03:52:00,75.7,72.9,30.16,WSW,237,0.0,2.3,91,0.00,,,0.00,0.00,VWS V14.01,2013-07-18 08:52:00,
2013-07-18 03:55:00,75.9,73.1,30.15,WSW,237,2.3,2.3,91,0.00,,,0.00,0.00,VWS V14.01,2013-07-18 08:55:00,
2013-07-18 03:57:00,76.0,73.2,30.15,WSW,237,1.1,1.1,91,0.00,,,0.00,0.00,VWS V14.01,2013-07-18 08:57:00,
2013-07-18 03:58:00,76.1,73.3,30.15,WSW,237,1.1,1.1,91,0.00,,,0.00,0.00,VWS V14.01,2013-07-18 08:58:00,
2013-07-18 04:00:00,76.2,73.1,30.15,WSW,237,2.3,3.4,90,0.00,,,0.00,0.00,VWS V14.01,2013-07-18 09:00:00,
2013-07-18 04:01:00,76.3,73.2,30.15,WSW,237,1.1,2.3,90,0.00,,,0.00,0.00,VWS V14.01,2013-07-18 09:01:00,
2013-07-18 04:02:00,76.3,73.2,30.15,WSW,237,2.3,3.4,90,0.00,,,0.00,0.00,VWS V14.01,2013-07-18 09:02:00,
2013-07-18 04:03:00,76.3,73.2,30.15,WSW,237,2.3,4.6,90,0.00,,,0.00,0.00,VWS V14.01,2013-07-18 09:03:00,
2013-07-18 04:06:00,76.3,73.2,30.15,WSW,237,2.3,2.3,90,0.00,,,0.00,0.00,VWS V14.01,2013-07-18 09:06:00,
2013-07-18 04:07:00,76.2,73.1,30.15,WSW,237,1.1,1.1,90,0.00,,,0.00,0.00,VWS V14.01,2013-07-18 09:07:00,
2013-07-18 04:09:00,76.2,73.1,30.15,WSW,237,0.0,1.1,90,0.00,,,0.00,0.00,VWS V14.01,2013-07-18 09:09:00,
2013-07-18 04:11:00,76.2,73.1,30.15,WSW,237,1.1,1.1,90,0.00,,,0.00,0.00,VWS V14.01,2013-07-18 09:11:00,
2013-07-18 04:12:00,76.2,73.1,30.15,WSW,237,2.3,2.3,90,0.00,,,0.00,0.00,VWS V14.01,2013-07-18 09:12:00,
2013-07-18 04:13:00,76.2,73.1,30.15,WSW,237,2.3,2.3,90,0.00,,,0.00,0.00,VWS V14.01,2013-07-18 09:13:00,
2013-07-18 04:14:00,76.1,73.0,30.15,WSW,237,0.0,2.3,90,0.00,,,0.00,0.00,VWS V14.01,2013-07-18 09:14:00,
2013-07-18 04:16:00,76.0,72.9,30.15,WSW,237,4.6,4.6,90,0.00,,,0.00,0.00,VWS V14.01,2013-07-18 09:16:00,
2013-07-18 04:17:00,75.9,72.8,30.15,WSW,237,1.1,2.3,90,0.00,,,0.00,0.00,VWS V14.01,2013-07-18 09:17:00,
2013-07-18 04:18:00,75.8,72.7,30.15,WSW,237,2.3,2.3,90,0.00,,,0.00,0.00,VWS V14.01,2013-07-18 09:18:00,
2013-07-18 04:19:00,75.8,72.7,30.15,WSW,237,2.3,2.3,90,0.00,,,0.00,0.00,VWS V14.01,2013-07-18 09:19:00,
2013-07-18 04:20:00,75.7,72.9,30.15,WSW,237,2.3,3.4,91,0.00,,,0.00,0.00,VWS V14.01,2013-07-18 09:20:00,
2013-07-18 04:21:00,75.8,73.0,30.15,WSW,237,1.1,2.3,91,0.00,,,0.00,0.00,VWS V14.01,2013-07-18 09:21:00,
2013-07-18 04:23:00,75.8,73.0,30.15,WSW,237,1.1,1.1,91,0.00,,,0.00,0.00,VWS V14.01,2013-07-18 09:23:00,
2013-07-18 04:24:00,75.8,73.0,30.15,WSW,237,1.1,1.1,91,0.00,,,0.00,0.00,VWS V14.01,2013-07-18 09:24:00,
2013-07-18 04:25:00,75.8,73.0,30.15,WSW,237,1.1,1.1,91,0.00,,,0.00,0.00,VWS V14.01,2013-07-18 09:25:00,
2013-07-18 04:27:00,75.7,72.6,30.15,WSW,237,0.0,1.1,90,0.00,,,0.00,0.00,VWS V14.01,2013-07-18 09:27:00,
2013-07-18 04:29:00,75.4,72.6,30.15,WSW,237,2.3,2.3,91,0.00,,,0.00,0.00,VWS V14.01,2013-07-18 09:29:00,
2013-07-18 04:31:00,75.2,72.4,30.15,WSW,237,1.1,3.4,91,0.00,,,0.00,0.00,VWS V14.01,2013-07-18 09:31:00,
2013-07-18 04:33:00,75.2,72.7,30.15,WSW,241,3.4,3.4,92,0.00,,,0.00,0.00,VWS V14.01,2013-07-18 09:33:00,
2013-07-18 04:34:00,75.2,72.7,30.15,NW,324,1.1,4.6,92,0.00,,,0.00,0.00,VWS V14.01,2013-07-18 09:34:00,
2013-07-18 04:35:00,75.2,72.7,30.15,NW,324,1.1,1.1,92,0.00,,,0.00,0.00,VWS V14.01,2013-07-18 09:35:00,
2013-07-18 04:37:00,75.2,72.7,30.15,NW,314,1.1,2.3,92,0.00,,,0.00,0.00,VWS V14.01,2013-07-18 09:37:00,
2013-07-18 04:38:00,75.2,72.7,30.15,NW,314,1.1,2.3,92,0.00,,,0.00,0.00,VWS V14.01,2013-07-18 09:38:00,
2013-07-18 04:40:00,75.2,72.7,30.15,NW,314,1.1,3.4,92,0.00,,,0.00,0.00,VWS V14.01,2013-07-18 09:40:00,
2013-07-18 04:41:00,75.2,72.7,30.15,NW,314,2.3,2.3,92,0.00,,,0.00,0.00,VWS V14.01,2013-07-18 09:41:00,
2013-07-18 04:43:00,75.2,72.7,30.15,NW,313,2.3,2.3,92,0.00,,,0.00,0.00,VWS V14.01,2013-07-18 09:43:00,
2013-07-18 04:46:00,75.1,72.6,30.15,WNW,292,3.4,4.6,92,0.00,,,0.00,0.00,VWS V14.01,2013-07-18 09:46:00,
2013-07-18 04:47:00,75.1,72.6,30.15,WNW,292,2.3,3.4,92,0.00,,,0.00,0.00,VWS V14.01,2013-07-18 09:47:00,
2013-07-18 04:48:00,75.0,72.5,30.15,WNW,287,2.3,2.3,92,0.00,,,0.00,0.00,VWS V14.01,2013-07-18 09:48:00,
2013-07-18 04:50:00,75.1,72.6,30.15,WNW,286,0.0,1.1,92,0.00,,,0.00,0.00,VWS V14.01,2013-07-18 09:50:00,
2013-07-18 04:52:00,75.3,72.8,30.15,West,280,2.3,2.3,92,0.00,,,0.00,0.00,VWS V14.01,2013-07-18 09:52:00,
2013-07-18 04:53:00,75.4,72.9,30.15,West,280,0.0,1.1,92,0.00,,,0.00,0.00,VWS V14.01,2013-07-18 09:53:00,
2013-07-18 04:54:00,75.4,72.9,30.15,West,280,1.1,2.3,92,0.00,,,0.00,0.00,VWS V14.01,2013-07-18 09:54:00,
2013-07-18 04:56:00,75.4,72.9,30.15,West,280,1.1,1.1,92,0.00,,,0.00,0.00,VWS V14.01,2013-07-18 09:56:00,
2013-07-18 04:58:00,75.3,72.5,30.15,West,280,1.1,3.4,91,0.00,,,0.00,0.00,VWS V14.01,2013-07-18 09:58:00,
2013-07-18 04:59:00,75.2,72.4,30.15,West,259,3.4,4.6,91,0.00,,,0.00,0.00,VWS V14.01,2013-07-18 09:59:00,
2013-07-18 05:01:00,75.1,72.6,30.15,WSW,256,3.4,3.4,92,0.00,,,0.00,0.00,VWS V14.01,2013-07-18 10:01:00,
2013-07-18 05:03:00,75.1,72.6,30.15,WSW,256,0.0,0.0,92,0.00,,,0.00,0.00,VWS V14.01,2013-07-18 10:03:00,
2013-07-18 05:05:00,75.0,72.5,30.15,WSW,256,2.3,2.3,92,0.00,,,0.00,0.00,VWS V14.01,2013-07-18 10:05:00,
2013-07-18 05:07:00,75.1,72.6,30.15,WSW,256,2.3,2.3,92,0.00,,,0.00,0.00,VWS V14.01,2013-07-18 10:07:00,
2013-07-18 05:08:00,75.1,72.6,30.15,WNW,282,0.0,3.4,92,0.00,,,0.00,0.00,VWS V14.01,2013-07-18 10:08:00,
2013-07-18 05:09:00,75.1,72.6,30.15,WNW,282,1.1,3.4,92,0.00,,,0.00,0.00,VWS V14.01,2013-07-18 10:09:00,
2013-07-18 05:10:00,75.1,72.6,30.15,WNW,282,2.3,2.3,92,0.00,,,0.00,0.00,VWS V14.01,2013-07-18 10:10:00,
2013-07-18 05:13:00,75.1,72.6,30.15,West,266,1.1,3.4,92,0.00,,,0.00,0.00,VWS V14.01,2013-07-18 10:13:00,
2013-07-18 05:15:00,75.1,72.6,30.15,West,266,1.1,2.3,92,0.00,,,0.00,0.00,VWS V14.01,2013-07-18 10:15:00,
2013-07-18 05:16:00,75.0,72.5,30.15,West,266,0.0,0.0,92,0.00,,,0.00,0.00,VWS V14.01,2013-07-18 10:16:00,
2013-07-18 05:19:00,74.8,72.3,30.15,West,266,0.0,0.0,92,0.00,,,0.00,0.00,VWS V14.01,2013-07-18 10:19:00,
2013-07-18 05:20:00,74.7,72.6,30.15,West,266,0.0,1.1,93,0.00,,,0.00,0.00,VWS V14.01,2013-07-18 10:20:00,
2013-07-18 05:21:00,74.7,72.2,30.15,West,266,0.0,0.0,92,0.00,,,0.00,0.00,VWS V14.01,2013-07-18 10:21:00,
2013-07-18 05:25:00,74.4,72.2,30.15,West,266,0.0,1.1,93,0.00,,,0.00,0.00,VWS V14.01,2013-07-18 10:25:00,
2013-07-18 05:26:00,74.3,72.2,30.15,West,266,0.0,0.0,93,0.00,,,0.00,0.00,VWS V14.01,2013-07-18 10:26:00,
2013-07-18 05:28:00,74.2,72.1,30.15,West,266,0.0,0.0,93,0.00,,,0.00,0.00,VWS V14.01,2013-07-18 10:28:00,
2013-07-18 05:30:00,74.2,72.4,30.15,West,266,0.0,0.0,94,0.00,,,0.00,0.00,VWS V14.01,2013-07-18 10:30:00,
2013-07-18 05:31:00,74.1,72.3,30.15,West,266,0.0,1.1,94,0.00,,,0.00,0.00,VWS V14.01,2013-07-18 10:31:00,
2013-07-18 05:32:00,74.0,72.2,30.15,West,266,0.0,0.0,94,0.00,,,0.00,0.00,VWS V14.01,2013-07-18 10:32:00,
2013-07-18 05:34:00,74.0,72.2,30.15,West,266,0.0,0.0,94,0.00,,,0.00,0.00,VWS V14.01,2013-07-18 10:34:00,
2013-07-18 05:37:00,74.0,72.2,30.15,West,262,2.3,2.3,94,0.00,,,0.00,0.00,VWS V14.01,2013-07-18 10:37:00,
2013-07-18 05:39:00,74.0,72.2,30.15,West,262,2.3,2.3,94,0.00,,,0.00,5.00,VWS V14.01,2013-07-18 10:39:00,
2013-07-18 05:42:00,74.1,72.3,30.15,West,262,0.0,0.0,94,0.00,,,0.00,7.00,VWS V14.01,2013-07-18 10:42:00,
2013-07-18 05:44:00,74.2,72.4,30.15,West,262,0.0,2.3,94,0.00,,,0.00,7.00,VWS V14.01,2013-07-18 10:44:00,
2013-07-18 05:45:00,74.3,72.5,30.15,West,262,0.0,1.1,94,0.00,,,0.00,7.00,VWS V14.01,2013-07-18 10:45:00,
2013-07-18 05:47:00,74.2,72.4,30.15,West,262,0.0,2.3,94,0.00,,,0.00,9.00,VWS V14.01,2013-07-18 10:47:00,
2013-07-18 05:48:00,74.3,72.5,30.15,West,262,0.0,1.1,94,0.00,,,0.00,9.00,VWS V14.01,2013-07-18 10:48:00,
2013-07-18 05:50:00,74.2,72.4,30.15,West,262,1.1,1.1,94,0.00,,,0.00,11.00,VWS V14.01,2013-07-18 10:50:00,
2013-07-18 05:52:00,74.2,72.4,30.15,West,262,0.0,0.0,94,0.00,,,0.00,11.00,VWS V14.01,2013-07-18 10:52:00,
2013-07-18 05:53:00,74.2,72.4,30.15,West,262,0.0,0.0,94,0.00,,,0.00,12.00,VWS V14.01,2013-07-18 10:53:00,
2013-07-18 05:54:00,74.2,72.4,30.15,West,262,1.1,2.3,94,0.00,,,0.00,12.00,VWS V14.01,2013-07-18 10:54:00,
2013-07-18 05:55:00,74.2,72.4,30.15,West,262,0.0,2.3,94,0.00,,,0.00,12.00,VWS V14.01,2013-07-18 10:55:00,
2013-07-18 05:58:00,74.2,72.4,30.15,West,262,0.0,0.0,94,0.00,,,0.00,14.00,VWS V14.01,2013-07-18 10:58:00,
2013-07-18 06:00:00,74.2,72.4,30.15,West,262,0.0,0.0,94,0.00,,,0.00,16.00,VWS V14.01,2013-07-18 11:00:00,
2013-07-18 06:01:00,74.2,72.4,30.15,West,262,0.0,1.1,94,0.00,,,0.00,16.00,VWS V14.01,2013-07-18 11:01:00,
2013-07-18 06:03:00,74.1,72.3,30.15,West,262,0.0,1.1,94,0.00,,,0.00,18.00,VWS V14.01,2013-07-18 11:03:00,
2013-07-18 06:04:00,74.1,71.9,30.15,West,262,1.1,1.1,93,0.00,,,0.00,18.00,VWS V14.01,2013-07-18 11:04:00,
2013-07-18 06:05:00,74.2,72.4,30.15,West,262,0.0,2.3,94,0.00,,,0.00,19.00,VWS V14.01,2013-07-18 11:05:00,
2013-07-18 06:08:00,74.3,72.5,30.15,West,262,1.1,2.3,94,0.00,,,0.00,21.00,VWS V14.01,2013-07-18 11:08:00,
2013-07-18 06:10:00,74.6,72.8,30.15,West,262,1.1,2.3,94,0.00,,,0.00,23.00,VWS V14.01,2013-07-18 11:10:00,
2013-07-18 06:11:00,74.6,72.8,30.15,West,262,1.1,1.1,94,0.00,,,0.00,25.00,VWS V14.01,2013-07-18 11:11:00,
2013-07-18 06:13:00,74.7,72.6,30.14,West,262,1.1,3.4,93,0.00,,,0.00,26.00,VWS V14.01,2013-07-18 11:13:00,
2013-07-18 06:14:00,74.8,72.6,30.15,West,262,1.1,2.3,93,0.00,,,0.00,28.00,VWS V14.01,2013-07-18 11:14:00,
2013-07-18 06:15:00,74.8,72.6,30.15,West,262,1.1,1.1,93,0.00,,,0.00,28.00,VWS V14.01,2013-07-18 11:15:00,
2013-07-18 06:16:00,74.8,72.6,30.15,West,262,0.0,1.1,93,0.00,,,0.00,30.00,VWS V14.01,2013-07-18 11:16:00,
2013-07-18 06:18:00,74.9,72.7,30.15,West,262,0.0,0.0,93,0.00,,,0.00,32.00,VWS V14.01,2013-07-18 11:18:00,
2013-07-18 06:20:00,75.0,72.8,30.15,West,261,1.1,1.1,93,0.00,,,0.00,35.00,VWS V14.01,2013-07-18 11:20:00,
2013-07-18 06:21:00,75.0,72.8,30.15,West,261,0.0,0.0,93,0.00,,,0.00,51.00,VWS V14.01,2013-07-18 11:21:00,
2013-07-18 06:22:00,75.0,72.8,30.15,West,261,0.0,1.1,93,0.00,,,0.00,72.00,VWS V14.01,2013-07-18 11:22:00,
2013-07-18 06:24:00,75.1,72.9,30.15,West,261,1.1,1.1,93,0.00,,,0.00,76.00,VWS V14.01,2013-07-18 11:24:00,
2013-07-18 06:25:00,75.1,72.9,30.15,West,261,1.1,1.1,93,0.00,,,0.00,79.00,VWS V14.01,2013-07-18 11:25:00,
2013-07-18 06:26:00,75.1,72.9,30.15,West,261,1.1,2.3,93,0.00,,,0.00,81.00,VWS V14.01,2013-07-18 11:26:00,
2013-07-18 06:27:00,75.2,73.0,30.15,West,261,0.0,1.1,93,0.00,,,0.00,84.00,VWS V14.01,2013-07-18 11:27:00,
2013-07-18 06:29:00,75.2,73.0,30.14,West,261,0.0,0.0,93,0.00,,,0.00,90.00,VWS V14.01,2013-07-18 11:29:00,
2013-07-18 06:31:00,75.3,73.1,30.15,West,261,0.0,0.0,93,0.00,,,0.00,95.00,VWS V14.01,2013-07-18 11:31:00,
2013-07-18 06:33:00,75.4,73.2,30.15,West,261,0.0,0.0,93,0.00,,,0.00,102.00,VWS V14.01,2013-07-18 11:33:00,
2013-07-18 06:34:00,75.5,73.3,30.15,West,261,0.0,0.0,93,0.00,,,0.00,100.00,VWS V14.01,2013-07-18 11:34:00,
2013-07-18 06:35:00,75.6,73.4,30.15,West,261,0.0,1.1,93,0.00,,,0.00,84.00,VWS V14.01,2013-07-18 11:35:00,
2013-07-18 06:36:00,75.6,73.4,30.15,West,261,0.0,1.1,93,0.00,,,0.00,46.00,VWS V14.01,2013-07-18 11:36:00,
2013-07-18 06:38:00,75.7,73.5,30.15,West,261,0.0,0.0,93,0.00,,,0.00,72.00,VWS V14.01,2013-07-18 11:38:00,
2013-07-18 06:39:00,75.9,73.7,30.15,West,261,1.1,1.1,93,0.00,,,0.00,98.00,VWS V14.01,2013-07-18 11:39:00,
2013-07-18 06:40:00,76.0,73.5,30.14,West,261,0.0,3.4,92,0.00,,,0.00,118.00,VWS V14.01,2013-07-18 11:40:00,
2013-07-18 06:41:00,76.1,73.6,30.15,West,261,0.0,0.0,92,0.00,,,0.00,125.00,VWS V14.01,2013-07-18 11:41:00,
2013-07-18 06:44:00,76.3,73.8,30.14,West,261,0.0,2.3,92,0.00,,,0.00,130.00,VWS V14.01,2013-07-18 11:44:00,
2013-07-18 06:45:00,76.3,73.8,30.14,West,261,1.1,1.1,92,0.00,,,0.00,130.00,VWS V14.01,2013-07-18 11:45:00,
2013-07-18 06:46:00,76.4,73.9,30.14,West,261,0.0,0.0,92,0.00,,,0.00,134.00,VWS V14.01,2013-07-18 11:46:00,
2013-07-18 06:47:00,76.5,73.7,30.14,West,261,0.0,0.0,91,0.00,,,0.00,132.00,VWS V14.01,2013-07-18 11:47:00,
2013-07-18 06:49:00,76.6,73.8,30.14,West,261,0.0,1.1,91,0.00,,,0.00,141.00,VWS V14.01,2013-07-18 11:49:00,
2013-07-18 06:50:00,76.6,73.8,30.14,West,261,1.1,2.3,91,0.00,,,0.00,141.00,VWS V14.01,2013-07-18 11:50:00,
2013-07-18 06:51:00,76.7,73.9,30.14,West,261,2.3,2.3,91,0.00,,,0.00,148.00,VWS V14.01,2013-07-18 11:51:00,
2013-07-18 06:52:00,76.8,74.0,30.14,West,261,3.4,3.4,91,0.00,,,0.00,148.00,VWS V14.01,2013-07-18 11:52:00,
2013-07-18 06:53:00,76.8,74.0,30.15,West,261,1.1,3.4,91,0.00,,,0.00,151.00,VWS V14.01,2013-07-18 11:53:00,
2013-07-18 06:55:00,77.0,73.8,30.15,West,261,0.0,0.0,90,0.00,,,0.00,151.00,VWS V14.01,2013-07-18 11:55:00,
2013-07-18 06:56:00,77.2,74.0,30.15,West,261,0.0,1.1,90,0.00,,,0.00,148.00,VWS V14.01,2013-07-18 11:56:00,
2013-07-18 06:58:00,77.3,74.1,30.15,West,261,0.0,0.0,90,0.00,,,0.00,162.00,VWS V14.01,2013-07-18 11:58:00,
2013-07-18 06:59:00,77.3,74.1,30.15,West,261,0.0,0.0,90,0.00,,,0.00,165.00,VWS V14.01,2013-07-18 11:59:00,
2013-07-18 07:01:00,77.3,74.1,30.15,West,261,0.0,1.1,90,0.00,,,0.00,169.00,VWS V14.01,2013-07-18 12:01:00,
2013-07-18 07:02:00,77.4,74.2,30.15,West,261,1.1,1.1,90,0.00,,,0.00,174.00,VWS V14.01,2013-07-18 12:02:00,
2013-07-18 07:03:00,77.5,74.3,30.15,West,261,1.1,1.1,90,0.00,,,0.00,176.00,VWS V14.01,2013-07-18 12:03:00,
2013-07-18 07:05:00,77.6,74.4,30.15,West,261,1.1,1.1,90,0.00,,,0.00,181.00,VWS V14.01,2013-07-18 12:05:00,
2013-07-18 07:06:00,77.6,74.4,30.15,West,260,1.1,3.4,90,0.00,,,0.00,181.00,VWS V14.01,2013-07-18 12:06:00,
2013-07-18 07:07:00,77.6,74.4,30.14,West,260,0.0,0.0,90,0.00,,,0.00,181.00,VWS V14.01,2013-07-18 12:07:00,
2013-07-18 07:08:00,77.7,74.5,30.15,West,260,1.1,2.3,90,0.00,,,0.00,190.00,VWS V14.01,2013-07-18 12:08:00,
2013-07-18 07:10:00,77.8,74.3,30.14,West,260,0.0,0.0,89,0.00,,,0.00,197.00,VWS V14.01,2013-07-18 12:10:00,
2013-07-18 07:11:00,77.8,74.3,30.15,West,260,0.0,1.1,89,0.00,,,0.00,199.00,VWS V14.01,2013-07-18 12:11:00,
2013-07-18 07:12:00,77.9,74.4,30.15,West,260,0.0,1.1,89,0.00,,,0.00,202.00,VWS V14.01,2013-07-18 12:12:00,
2013-07-18 07:13:00,77.9,74.4,30.15,West,260,0.0,0.0,89,0.00,,,0.00,207.00,VWS V14.01,2013-07-18 12:13:00,
2013-07-18 07:16:00,78.1,74.9,30.15,West,260,0.0,0.0,90,0.00,,,0.00,214.00,VWS V14.01,2013-07-18 12:16:00,
2013-07-18 07:17:00,78.2,75.0,30.15,West,259,1.1,2.3,90,0.00,,,0.00,216.00,VWS V14.01,2013-07-18 12:17:00,
2013-07-18 07:19:00,78.2,74.7,30.15,West,259,1.1,1.1,89,0.00,,,0.00,223.00,VWS V14.01,2013-07-18 12:19:00,
2013-07-18 07:22:00,78.2,74.7,30.14,West,259,1.1,1.1,89,0.00,,,0.00,232.00,VWS V14.01,2013-07-18 12:22:00,
2013-07-18 07:23:00,78.2,74.7,30.14,West,259,0.0,0.0,89,0.00,,,0.00,236.00,VWS V14.01,2013-07-18 12:23:00,
2013-07-18 07:25:00,78.2,74.7,30.15,WSW,247,3.4,4.6,89,0.00,,,0.00,243.00,VWS V14.01,2013-07-18 12:25:00,
2013-07-18 07:26:00,78.3,74.8,30.15,WSW,247,2.3,3.4,89,0.00,,,0.00,244.00,VWS V14.01,2013-07-18 12:26:00,
2013-07-18 07:27:00,78.3,74.8,30.14,WSW,241,2.3,3.4,89,0.00,,,0.00,248.00,VWS V14.01,2013-07-18 12:27:00,
2013-07-18 07:28:00,78.3,74.8,30.14,WSW,241,0.0,2.3,89,0.00,,,0.00,250.00,VWS V14.01,2013-07-18 12:28:00,
2013-07-18 07:30:00,78.3,74.8,30.14,WSW,241,0.0,0.0,89,0.00,,,0.00,258.00,VWS V14.01,2013-07-18 12:30:00,
2013-07-18 07:32:00,78.5,75.0,30.14,WSW,241,1.1,2.3,89,0.00,,,0.00,264.00,VWS V14.01,2013-07-18 12:32:00,
2013-07-18 07:33:00,78.5,75.0,30.15,WSW,241,0.0,1.1,89,0.00,,,0.00,265.00,VWS V14.01,2013-07-18 12:33:00,
2013-07-18 07:34:00,78.6,75.1,30.14,WSW,241,3.4,3.4,89,0.00,,,0.00,272.00,VWS V14.01,2013-07-18 12:34:00,
2013-07-18 07:36:00,78.7,75.2,30.15,WSW,241,3.4,3.4,89,0.00,,,0.00,278.00,VWS V14.01,2013-07-18 12:36:00,
2013-07-18 07:37:00,78.8,75.3,30.14,WSW,241,0.0,4.6,89,0.00,,,0.00,279.00,VWS V14.01,2013-07-18 12:37:00,
2013-07-18 07:38:00,78.9,75.4,30.14,WSW,241,0.0,1.1,89,0.00,,,0.00,281.00,VWS V14.01,2013-07-18 12:38:00,
2013-07-18 07:39:00,79.0,75.2,30.15,SW,236,2.3,3.4,88,0.00,,,0.00,287.00,VWS V14.01,2013-07-18 12:39:00,
2013-07-18 07:40:00,79.0,75.2,30.15,SW,236,2.3,3.4,88,0.00,,,0.00,287.00,VWS V14.01,2013-07-18 12:40:00,
2013-07-18 07:42:00,79.1,75.2,30.15,SW,236,1.1,1.1,88,0.00,,,0.00,290.00,VWS V14.01,2013-07-18 12:42:00,
2013-07-18 07:44:00,79.2,75.3,30.15,SW,236,2.3,2.3,88,0.00,,,0.00,299.00,VWS V14.01,2013-07-18 12:44:00,
2013-07-18 07:45:00,79.3,75.4,30.15,South,174,3.4,3.4,88,0.00,,,0.00,304.00,VWS V14.01,2013-07-18 12:45:00,
2013-07-18 07:47:00,79.4,75.5,30.15,South,174,0.0,1.1,88,0.00,,,0.00,308.00,VWS V14.01,2013-07-18 12:47:00,
2013-07-18 07:49:00,79.7,75.8,30.15,South,177,5.8,5.8,88,0.00,,,0.00,315.00,VWS V14.01,2013-07-18 12:49:00,
2013-07-18 07:50:00,79.7,75.8,30.15,South,177,4.6,5.8,88,0.00,,,0.00,315.00,VWS V14.01,2013-07-18 12:50:00,
2013-07-18 07:51:00,79.8,75.9,30.15,SSW,212,0.0,2.3,88,0.00,,,0.00,320.00,VWS V14.01,2013-07-18 12:51:00,
2013-07-18 07:52:00,79.8,75.6,30.15,SSW,212,1.1,1.1,87,0.00,,,0.00,323.00,VWS V14.01,2013-07-18 12:52:00,
2013-07-18 07:54:00,80.0,76.1,30.15,SSW,212,2.3,3.4,88,0.00,,,0.00,330.00,VWS V14.01,2013-07-18 12:54:00,
2013-07-18 07:55:00,80.0,76.1,30.15,SSW,209,2.3,2.3,88,0.00,,,0.00,334.00,VWS V14.01,2013-07-18 12:55:00,
2013-07-18 07:56:00,80.2,76.3,30.15,SSW,209,1.1,3.4,88,0.00,,,0.00,338.00,VWS V14.01,2013-07-18 12:56:00,
2013-07-18 07:57:00,80.2,76.0,30.15,SW,222,1.1,3.4,87,0.00,,,0.00,338.00,VWS V14.01,2013-07-18 12:57:00,
2013-07-18 08:00:00,80.6,76.4,30.15,SW,224,2.3,4.6,87,0.00,,,0.00,348.00,VWS V14.01,2013-07-18 13:00:00,
2013-07-18 08:01:00,80.6,76.4,30.15,SW,224,3.4,3.4,87,0.00,,,0.00,348.00,VWS V14.01,2013-07-18 13:01:00,
2013-07-18 08:03:00,81.0,76.4,30.15,SSW,205,2.3,2.3,86,0.00,,,0.00,355.00,VWS V14.01,2013-07-18 13:03:00,
2013-07-18 08:05:00,81.2,76.6,30.15,SSW,205,0.0,1.1,86,0.00,,,0.00,364.00,VWS V14.01,2013-07-18 13:05:00,
2013-07-18 08:06:00,81.2,76.6,30.15,SSW,205,2.3,2.3,86,0.00,,,0.00,366.00,VWS V14.01,2013-07-18 13:06:00,
2013-07-18 08:08:00,81.3,76.4,30.15,SSW,205,1.1,2.3,85,0.00,,,0.00,369.00,VWS V14.01,2013-07-18 13:08:00,
2013-07-18 08:11:00,81.6,76.3,30.15,SW,218,3.4,5.8,84,0.00,,,0.00,380.00,VWS V14.01,2013-07-18 13:11:00,
2013-07-18 08:12:00,81.6,76.7,30.15,SW,226,3.4,4.6,85,0.00,,,0.00,381.00,VWS V14.01,2013-07-18 13:12:00,
2013-07-18 08:13:00,81.7,76.8,30.15,SW,226,1.1,3.4,85,0.00,,,0.00,385.00,VWS V14.01,2013-07-18 13:13:00,
2013-07-18 08:16:00,81.8,76.5,30.15,SW,226,1.1,3.4,84,0.00,,,0.00,399.00,VWS V14.01,2013-07-18 13:16:00,
2013-07-18 08:17:00,81.9,76.9,30.15,SW,226,2.3,3.4,85,0.00,,,0.00,401.00,VWS V14.01,2013-07-18 13:17:00,
2013-07-18 08:18:00,81.9,76.9,30.15,SW,226,0.0,0.0,85,0.00,,,0.00,401.00,VWS V14.01,2013-07-18 13:18:00,
2013-07-18 08:19:00,82.1,77.2,30.15,SW,226,0.0,3.4,85,0.00,,,0.00,408.00,VWS V14.01,2013-07-18 13:19:00,
2013-07-18 08:22:00,82.2,76.9,30.15,SW,225,1.1,2.3,84,0.00,,,0.00,413.00,VWS V14.01,2013-07-18 13:22:00,
2013-07-18 08:23:00,82.3,77.0,30.14,SW,226,4.6,4.6,84,0.00,,,0.00,415.00,VWS V14.01,2013-07-18 13:23:00,
2013-07-18 08:26:00,82.4,77.1,30.15,SW,226,2.3,2.3,84,0.00,,,0.00,422.00,VWS V14.01,2013-07-18 13:26:00,
2013-07-18 08:27:00,82.5,77.2,30.15,SW,226,2.3,3.4,84,0.00,,,0.00,425.00,VWS V14.01,2013-07-18 13:27:00,
2013-07-18 08:28:00,82.5,77.2,30.15,SW,226,2.3,2.3,84,0.00,,,0.00,425.00,VWS V14.01,2013-07-18 13:28:00,
2013-07-18 08:32:00,83.1,77.4,30.15,SSW,201,0.0,0.0,83,0.00,,,0.00,439.00,VWS V14.01,2013-07-18 13:32:00,
2013-07-18 08:33:00,83.2,77.9,30.15,SSW,208,3.4,4.6,84,0.00,,,0.00,441.00,VWS V14.01,2013-07-18 13:33:00,
2013-07-18 08:34:00,83.2,77.5,30.15,SSW,208,1.1,3.4,83,0.00,,,0.00,443.00,VWS V14.01,2013-07-18 13:34:00,
2013-07-18 08:36:00,83.4,77.7,30.15,SW,216,1.1,4.6,83,0.00,,,0.00,455.00,VWS V14.01,2013-07-18 13:36:00,
2013-07-18 08:37:00,83.5,77.4,30.15,SW,216,1.1,3.4,82,0.00,,,0.00,457.00,VWS V14.01,2013-07-18 13:37:00,
2013-07-18 08:38:00,83.6,77.9,30.15,SSW,196,2.3,2.3,83,0.00,,,0.00,459.00,VWS V14.01,2013-07-18 13:38:00,
2013-07-18 08:40:00,83.6,77.5,30.15,SSW,197,2.3,2.3,82,0.00,,,0.00,461.00,VWS V14.01,2013-07-18 13:40:00,
2013-07-18 08:42:00,83.9,77.8,30.14,South,182,3.4,4.6,82,0.00,,,0.00,471.00,VWS V14.01,2013-07-18 13:42:00,
2013-07-18 08:43:00,83.9,77.8,30.14,South,182,0.0,4.6,82,0.00,,,0.00,471.00,VWS V14.01,2013-07-18 13:43:00,
2013-07-18 08:44:00,83.9,77.4,30.14,South,182,2.3,2.3,81,0.00,,,0.00,476.00,VWS V14.01,2013-07-18 13:44:00,
2013-07-18 08:45:00,83.8,77.7,30.14,South,183,3.4,3.4,82,0.00,,,0.00,480.00,VWS V14.01,2013-07-18 13:45:00,
2013-07-18 08:46:00,83.8,77.7,30.15,South,183,2.3,2.3,82,0.00,,,0.00,483.00,VWS V14.01,2013-07-18 13:46:00,
2013-07-18 08:48:00,83.9,77.8,30.14,South,183,1.1,1.1,82,0.00,,,0.00,487.00,VWS V14.01,2013-07-18 13:48:00,
2013-07-18 08:49:00,84.1,78.8,30.14,SW,226,4.6,4.6,84,0.00,,,0.00,494.00,VWS V14.01,2013-07-18 13:49:00,
2013-07-18 08:50:00,84.1,78.8,30.14,SW,228,4.6,4.6,84,0.00,,,0.00,494.00,VWS V14.01,2013-07-18 13:50:00,
2013-07-18 08:51:00,84.3,77.8,30.14,WSW,246,2.3,4.6,81,0.00,,,0.00,497.00,VWS V14.01,2013-07-18 13:51:00,
2013-07-18 08:55:00,84.6,78.1,30.14,SW,229,1.1,3.4,81,0.00,,,0.00,510.00,VWS V14.01,2013-07-18 13:55:00,
2013-07-18 08:56:00,84.6,77.8,30.14,WSW,239,3.4,3.4,80,0.00,,,0.00,512.00,VWS V14.01,2013-07-18 13:56:00,
2013-07-18 08:57:00,84.8,77.9,30.14,WSW,256,3.4,6.9,80,0.00,,,0.00,517.00,VWS V14.01,2013-07-18 13:57:00,
2013-07-18 09:00:00,84.9,77.7,30.15,SSW,207,1.1,4.6,79,0.00,,,0.00,526.00,VWS V14.01,2013-07-18 14:00:00,
2013-07-18 09:01:00,84.9,77.7,30.14,SSW,208,1.1,1.1,79,0.00,,,0.00,529.00,VWS V14.01,2013-07-18 14:01:00,
2013-07-18 09:02:00,85.0,77.8,30.14,WSW,242,3.4,3.4,79,0.00,,,0.00,531.00,VWS V14.01,2013-07-18 14:02:00,
2013-07-18 09:03:00,85.1,78.2,30.14,SSW,204,2.3,5.8,80,0.00,,,0.00,534.00,VWS V14.01,2013-07-18 14:03:00,
2013-07-18 09:06:00,85.3,77.7,30.14,SW,221,2.3,2.3,78,0.00,,,0.00,541.00,VWS V14.01,2013-07-18 14:06:00,
2013-07-18 09:07:00,85.3,77.7,30.14,SW,221,1.1,2.3,78,0.00,,,0.00,543.00,VWS V14.01,2013-07-18 14:07:00,
2013-07-18 09:08:00,85.5,77.9,30.14,WSW,249,8.1,8.1,78,0.00,,,0.00,547.00,VWS V14.01,2013-07-18 14:08:00,
2013-07-18 09:09:00,85.5,77.9,30.14,WSW,253,6.9,6.9,78,0.00,,,0.00,548.00,VWS V14.01,2013-07-18 14:09:00,
2013-07-18 09:11:00,85.4,77.0,30.14,WSW,257,5.8,5.8,76,0.00,,,0.00,561.00,VWS V14.01,2013-07-18 14:11:00,
2013-07-18 09:12:00,85.4,77.4,30.14,WSW,249,4.6,6.9,77,0.00,,,0.00,561.00,VWS V14.01,2013-07-18 14:12:00,
2013-07-18 09:13:00,85.4,77.4,30.14,WSW,249,3.4,3.4,77,0.00,,,0.00,563.00,VWS V14.01,2013-07-18 14:13:00,
2013-07-18 09:14:00,85.3,77.7,30.14,WSW,258,3.4,3.4,78,0.00,,,0.00,564.00,VWS V14.01,2013-07-18 14:14:00,
2013-07-18 09:17:00,85.3,78.1,30.13,West,260,5.8,5.8,79,0.00,,,0.00,577.00,VWS V14.01,2013-07-18 14:17:00,
2013-07-18 09:18:00,85.4,77.8,30.13,SSW,193,4.6,4.6,78,0.00,,,0.00,577.00,VWS V14.01,2013-07-18 14:18:00,
2013-07-18 09:19:00,85.8,78.5,30.13,WSW,241,5.8,6.9,79,0.00,,,0.00,578.00,VWS V14.01,2013-07-18 14:19:00,
2013-07-18 09:21:00,85.9,78.2,30.14,SW,231,5.8,5.8,78,0.00,,,0.00,584.00,VWS V14.01,2013-07-18 14:21:00,
2013-07-18 09:22:00,86.1,78.8,30.13,SW,226,3.4,4.6,79,0.00,,,0.00,587.00,VWS V14.01,2013-07-18 14:22:00,
2013-07-18 09:23:00,86.2,78.5,30.13,SSW,198,4.6,4.6,78,0.00,,,0.00,592.00,VWS V14.01,2013-07-18 14:23:00,
2013-07-18 09:25:00,86.4,78.7,30.13,WNW,295,3.4,8.1,78,0.00,,,0.00,598.00,VWS V14.01,2013-07-18 14:25:00,
2013-07-18 09:26:00,86.4,77.5,30.13,West,280,4.6,8.1,75,0.00,,,0.00,601.00,VWS V14.01,2013-07-18 14:26:00,
2013-07-18 09:27:00,86.3,77.4,30.13,WNW,291,6.9,6.9,75,0.00,,,0.00,605.00,VWS V14.01,2013-07-18 14:27:00,
2013-07-18 09:29:00,86.3,78.6,30.13,WSW,251,5.8,6.9,78,0.00,,,0.00,605.00,VWS V14.01,2013-07-18 14:29:00,
2013-07-18 09:30:00,86.5,77.6,30.13,West,263,5.8,5.8,75,0.00,,,0.00,610.00,VWS V14.01,2013-07-18 14:30:00,
2013-07-18 09:32:00,86.5,78.0,30.13,South,186,8.1,8.1,76,0.00,,,0.00,615.00,VWS V14.01,2013-07-18 14:32:00,
2013-07-18 09:34:00,86.8,78.7,30.13,SW,224,3.4,3.4,77,0.00,,,0.00,619.00,VWS V14.01,2013-07-18 14:34:00,
2013-07-18 09:35:00,86.8,77.9,30.13,WSW,251,4.6,5.8,75,0.00,,,0.00,624.00,VWS V14.01,2013-07-18 14:35:00,
2013-07-18 09:37:00,86.9,78.8,30.13,WNW,283,6.9,8.1,77,0.00,,,0.00,628.00,VWS V14.01,2013-07-18 14:37:00,
2013-07-18 09:39:00,86.9,77.6,30.13,West,260,4.6,4.6,74,0.00,,,0.00,633.00,VWS V14.01,2013-07-18 14:39:00,
2013-07-18 09:40:00,86.9,77.6,30.13,West,260,5.8,5.8,74,0.00,,,0.00,633.00,VWS V14.01,2013-07-18 14:40:00,
2013-07-18 09:41:00,86.9,77.2,30.13,WSW,251,5.8,8.1,73,0.00,,,0.00,638.00,VWS V14.01,2013-07-18 14:41:00,
2013-07-18 09:42:00,87.0,77.3,30.13,West,263,4.6,8.1,73,0.00,,,0.00,640.00,VWS V14.01,2013-07-18 14:42:00,
2013-07-18 09:43:00,87.0,77.3,30.13,West,274,5.8,6.9,73,0.00,,,0.00,640.00,VWS V14.01,2013-07-18 14:43:00,
2013-07-18 09:44:00,87.0,76.9,30.13,West,272,6.9,6.9,72,0.00,,,0.00,645.00,VWS V14.01,2013-07-18 14:44:00,
2013-07-18 09:45:00,87.0,77.3,30.13,West,272,4.6,6.9,73,0.00,,,0.00,647.00,VWS V14.01,2013-07-18 14:45:00,
2013-07-18 09:46:00,87.0,77.3,30.13,WNW,302,4.6,5.8,73,0.00,,,0.00,649.00,VWS V14.01,2013-07-18 14:46:00,
2013-07-18 09:48:00,87.2,77.9,30.13,WNW,298,5.8,6.9,74,0.00,,,0.00,654.00,VWS V14.01,2013-07-18 14:48:00,
2013-07-18 09:50:00,87.3,77.6,30.13,SW,228,5.8,6.9,73,0.00,,,0.00,661.00,VWS V14.01,2013-07-18 14:50:00,
2013-07-18 09:52:00,87.5,77.8,30.13,West,261,4.6,5.8,73,0.00,,,0.00,663.00,VWS V14.01,2013-07-18 14:52:00,
2013-07-18 09:53:00,87.5,76.9,30.13,West,272,4.6,6.9,71,0.00,,,0.00,668.00,VWS V14.01,2013-07-18 14:53:00,
2013-07-18 09:55:00,87.4,77.3,30.13,WNW,294,3.4,5.8,72,0.00,,,0.00,668.00,VWS V14.01,2013-07-18 14:55:00,
2013-07-18 09:56:00,87.2,76.7,30.13,WNW,294,2.3,3.4,71,0.00,,,0.00,663.00,VWS V14.01,2013-07-18 14:56:00,
2013-07-18 09:57:00,87.1,77.0,30.13,WNW,295,6.9,6.9,72,0.00,,,0.00,675.00,VWS V14.01,2013-07-18 14:57:00,
2013-07-18 09:59:00,87.1,77.0,30.13,SSW,202,4.6,4.6,72,0.00,,,0.00,684.00,VWS V14.01,2013-07-18 14:59:00,
2013-07-18 10:01:00,87.6,77.0,30.13,West,261,9.2,9.2,71,0.00,,,0.00,689.00,VWS V14.01,2013-07-18 15:01:00,
2013-07-18 10:02:00,87.8,77.2,30.13,WNW,291,5.8,5.8,71,0.00,,,0.00,691.00,VWS V14.01,2013-07-18 15:02:00,
2013-07-18 10:04:00,87.8,77.2,30.13,West,260,5.8,5.8,71,0.00,,,0.00,694.00,VWS V14.01,2013-07-18 15:04:00,
2013-07-18 10:06:00,88.0,77.0,30.13,South,172,2.3,3.4,70,0.00,,,0.00,698.00,VWS V14.01,2013-07-18 15:06:00,
2013-07-18 10:07:00,88.1,78.4,30.13,SW,216,8.1,8.1,73,0.00,,,0.00,703.00,VWS V14.01,2013-07-18 15:07:00,
2013-07-18 10:08:00,88.1,78.4,30.13,South,177,6.9,8.1,73,0.00,,,0.00,703.00,VWS V14.01,2013-07-18 15:08:00,
2013-07-18 10:09:00,88.4,77.8,30.13,WSW,241,8.1,9.2,71,0.00,,,0.00,708.00,VWS V14.01,2013-07-18 15:09:00,
2013-07-18 10:11:00,88.6,77.6,30.13,SW,231,5.8,8.1,70,0.00,,,0.00,714.00,VWS V14.01,2013-07-18 15:11:00,
2013-07-18 10:13:00,88.6,76.7,30.13,SW,231,5.8,5.8,68,0.00,,,0.00,715.00,VWS V14.01,2013-07-18 15:13:00,
2013-07-18 10:14:00,88.6,76.2,30.13,WSW,251,3.4,4.6,67,0.00,,,0.00,712.00,VWS V14.01,2013-07-18 15:14:00,
2013-07-18 10:16:00,88.5,77.0,30.13,WSW,256,9.2,9.2,69,0.00,,,0.00,714.00,VWS V14.01,2013-07-18 15:16:00,
2013-07-18 10:17:00,88.5,77.0,30.13,West,274,8.1,8.1,69,0.00,,,0.00,721.00,VWS V14.01,2013-07-18 15:17:00,
2013-07-18 10:18:00,88.5,77.5,30.13,SSW,195,5.8,8.1,70,0.00,,,0.00,724.00,VWS V14.01,2013-07-18 15:18:00,
2013-07-18 10:20:00,88.8,77.3,30.13,WSW,239,3.4,3.4,69,0.00,,,0.00,724.00,VWS V14.01,2013-07-18 15:20:00,
2013-07-18 10:22:00,88.9,76.1,30.13,West,261,3.4,3.4,66,0.00,,,0.00,735.00,VWS V14.01,2013-07-18 15:22:00,
2013-07-18 10:24:00,88.9,77.0,30.13,WSW,256,5.8,5.8,68,0.00,,,0.00,742.00,VWS V14.01,2013-07-18 15:24:00,
2013-07-18 10:26:00,89.2,78.1,30.13,SW,214,6.9,9.2,70,0.00,,,0.00,749.00,VWS V14.01,2013-07-18 15:26:00,
2013-07-18 10:27:00,89.2,77.7,30.13,SSW,205,5.8,6.9,69,0.00,,,0.00,756.00,VWS V14.01,2013-07-18 15:27:00,
2013-07-18 10:28:00,89.2,77.7,30.13,SSW,199,2.3,9.2,69,0.00,,,0.00,749.00,VWS V14.01,2013-07-18 15:28:00,
2013-07-18 10:29:00,89.4,78.3,30.13,South,172,4.6,6.9,70,0.00,,,0.00,775.00,VWS V14.01,2013-07-18 15:29:00,
2013-07-18 10:31:00,89.7,77.7,30.13,SW,228,3.4,11.5,68,0.00,,,0.00,807.00,VWS V14.01,2013-07-18 15:31:00,
2013-07-18 10:32:00,89.8,76.5,30.13,West,278,5.8,6.9,65,0.00,,,0.00,810.00,VWS V14.01,2013-07-18 15:32:00,
2013-07-18 10:34:00,89.6,76.7,30.12,WSW,238,5.8,6.9,66,0.00,,,0.00,814.00,VWS V14.01,2013-07-18 15:34:00,
2013-07-18 10:35:00,89.4,76.6,30.12,WSW,239,4.6,8.1,66,0.00,,,0.00,751.00,VWS V14.01,2013-07-18 15:35:00,
2013-07-18 10:36:00,89.3,76.9,30.12,WSW,246,9.2,10.3,67,0.00,,,0.00,751.00,VWS V14.01,2013-07-18 15:36:00,
2013-07-18 10:39:00,88.7,76.3,30.12,South,181,9.2,9.2,67,0.00,,,0.00,814.00,VWS V14.01,2013-07-18 15:39:00,
2013-07-18 10:40:00,88.8,76.4,30.13,WSW,243,5.8,6.9,67,0.00,,,0.00,814.00,VWS V14.01,2013-07-18 15:40:00,
2013-07-18 10:42:00,89.0,76.2,30.12,South,176,5.8,9.2,66,0.00,,,0.00,824.00,VWS V14.01,2013-07-18 15:42:00,
2013-07-18 10:44:00,89.6,77.6,30.12,SW,215,5.8,5.8,68,0.00,,,0.00,851.00,VWS V14.01,2013-07-18 15:44:00,
2013-07-18 10:45:00,90.0,77.1,30.12,West,261,6.9,9.2,66,0.00,,,0.00,870.00,VWS V14.01,2013-07-18 15:45:00,
2013-07-18 10:47:00,90.2,78.2,30.12,WNW,289,9.2,9.2,68,0.00,,,0.00,831.00,VWS V14.01,2013-07-18 15:47:00,
2013-07-18 10:49:00,90.1,76.3,30.12,WSW,248,8.1,10.3,64,0.00,,,0.00,230.00,VWS V14.01,2013-07-18 15:49:00,
2013-07-18 10:50:00,90.0,75.7,30.12,WSW,258,4.6,6.9,63,0.00,,,0.00,230.00,VWS V14.01,2013-07-18 15:50:00,
2013-07-18 10:53:00,89.5,76.7,30.12,WSW,245,4.6,8.1,66,0.00,,,0.00,881.00,VWS V14.01,2013-07-18 15:53:00,
2013-07-18 10:54:00,89.6,78.1,30.12,South,187,5.8,8.1,69,0.00,,,0.00,886.00,VWS V14.01,2013-07-18 15:54:00,
2013-07-18 10:55:00,90.1,78.1,30.12,South,187,3.4,6.9,68,0.00,,,0.00,905.00,VWS V14.01,2013-07-18 15:55:00,
2013-07-18 10:56:00,90.2,76.4,30.12,South,191,2.3,3.4,64,0.00,,,0.00,905.00,VWS V14.01,2013-07-18 15:56:00,
2013-07-18 10:58:00,90.7,76.8,30.12,WSW,258,3.4,5.8,64,0.00,,,0.00,909.00,VWS V14.01,2013-07-18 15:58:00,
2013-07-18 10:59:00,90.7,76.8,30.12,WNW,295,5.8,5.8,64,0.00,,,0.00,909.00,VWS V14.01,2013-07-18 15:59:00,
2013-07-18 11:00:00,90.8,76.5,30.12,NW,325,3.4,5.8,63,0.00,,,0.00,930.00,VWS V14.01,2013-07-18 16:00:00,
2013-07-18 11:01:00,90.8,76.5,30.12,WSW,253,9.2,9.2,63,0.00,,,0.00,930.00,VWS V14.01,2013-07-18 16:01:00,
2013-07-18 11:03:00,91.0,77.1,30.12,SSW,208,6.9,9.2,64,0.00,,,0.00,935.00,VWS V14.01,2013-07-18 16:03:00,
2013-07-18 11:05:00,91.0,76.2,30.12,SW,216,8.1,12.6,62,0.00,,,0.00,935.00,VWS V14.01,2013-07-18 16:05:00,
2013-07-18 11:06:00,90.9,77.5,30.12,WSW,237,6.9,11.5,65,0.00,,,0.00,947.00,VWS V14.01,2013-07-18 16:06:00,
2013-07-18 11:07:00,90.9,75.6,30.12,SW,230,5.8,8.1,61,0.00,,,0.00,951.00,VWS V14.01,2013-07-18 16:07:00,
2013-07-18 11:08:00,91.1,76.3,30.12,WSW,254,5.8,8.1,62,0.00,,,0.00,960.00,VWS V14.01,2013-07-18 16:08:00,
2013-07-18 11:10:00,91.5,76.2,30.12,SW,218,10.3,12.6,61,0.00,,,0.00,977.00,VWS V14.01,2013-07-18 16:10:00,
2013-07-18 11:11:00,91.5,76.2,30.12,SSW,198,5.8,10.3,61,0.00,,,0.00,977.00,VWS V14.01,2013-07-18 16:11:00,
2013-07-18 11:12:00,91.6,75.8,30.12,SW,236,6.9,8.1,60,0.00,,,0.00,972.00,VWS V14.01,2013-07-18 16:12:00,
2013-07-18 11:14:00,91.6,75.8,30.12,SSW,209,9.2,12.6,60,0.00,,,0.00,1000.00,VWS V14.01,2013-07-18 16:14:00,
2013-07-18 11:16:00,91.7,76.8,30.12,SSW,197,4.6,6.9,62,0.00,,,0.00,970.00,VWS V14.01,2013-07-18 16:16:00,
2013-07-18 11:18:00,91.7,76.3,30.12,SSW,205,11.5,11.5,61,0.00,,,0.00,1002.00,VWS V14.01,2013-07-18 16:18:00,
2013-07-18 11:19:00,91.9,76.5,30.12,South,189,4.6,5.8,61,0.00,,,0.00,1005.00,VWS V14.01,2013-07-18 16:19:00,
2013-07-18 11:21:00,92.4,77.5,30.12,West,267,6.9,8.1,62,0.00,,,0.00,969.00,VWS V14.01,2013-07-18 16:21:00,
2013-07-18 11:22:00,92.4,76.0,30.12,SSE,166,12.6,12.6,59,0.00,,,0.00,998.00,VWS V14.01,2013-07-18 16:22:00,
2013-07-18 11:23:00,92.5,75.6,30.12,SSW,201,4.6,9.2,58,0.00,,,0.00,1005.00,VWS V14.01,2013-07-18 16:23:00,
2013-07-18 11:24:00,92.6,76.2,30.12,WSW,239,8.1,10.3,59,0.00,,,0.00,1005.00,VWS V14.01,2013-07-18 16:24:00,
2013-07-18 11:26:00,92.5,77.6,30.12,WSW,243,12.6,12.6,62,0.00,,,0.00,990.00,VWS V14.01,2013-07-18 16:26:00,
2013-07-18 11:27:00,92.6,76.2,30.12,SSW,204,11.5,11.5,59,0.00,,,0.00,974.00,VWS V14.01,2013-07-18 16:27:00,
2013-07-18 11:29:00,92.8,76.4,30.12,South,183,9.2,11.5,59,0.00,,,0.00,946.00,VWS V14.01,2013-07-18 16:29:00,
2013-07-18 11:30:00,92.7,76.3,30.12,South,179,5.8,13.8,59,0.00,,,0.00,939.00,VWS V14.01,2013-07-18 16:30:00,
2013-07-18 11:31:00,92.4,76.0,30.12,SSW,203,8.1,10.3,59,0.00,,,0.00,926.00,VWS V14.01,2013-07-18 16:31:00,
2013-07-18 11:32:00,92.2,75.3,30.12,SSW,201,8.1,9.2,58,0.00,,,0.00,935.00,VWS V14.01,2013-07-18 16:32:00,
2013-07-18 11:34:00,92.2,76.8,30.12,SW,223,13.8,13.8,61,0.00,,,0.00,949.00,VWS V14.01,2013-07-18 16:34:00,
2013-07-18 11:36:00,92.1,77.7,30.12,SE,129,9.2,14.9,63,0.00,,,0.00,944.00,VWS V14.01,2013-07-18 16:36:00,
2013-07-18 11:37:00,92.2,77.8,30.12,South,170,5.8,10.3,63,0.00,,,0.00,944.00,VWS V14.01,2013-07-18 16:37:00,
2013-07-18 11:38:00,92.4,76.5,30.12,SW,216,6.9,10.3,60,0.00,,,0.00,916.00,VWS V14.01,2013-07-18 16:38:00,
2013-07-18 11:40:00,92.4,77.0,30.12,South,183,12.6,12.6,61,0.00,,,0.00,911.00,VWS V14.01,2013-07-18 16:40:00,
2013-07-18 11:42:00,92.2,77.3,30.12,SSW,194,6.9,6.9,62,0.00,,,0.00,907.00,VWS V14.01,2013-07-18 16:42:00,
2013-07-18 11:44:00,92.2,78.3,30.12,SSE,159,6.9,9.2,64,0.00,,,0.00,921.00,VWS V14.01,2013-07-18 16:44:00,
2013-07-18 11:46:00,92.5,76.6,30.12,SW,216,6.9,6.9,60,0.00,,,0.00,930.00,VWS V14.01,2013-07-18 16:46:00,
2013-07-18 11:48:00,92.8,78.8,30.12,SSW,205,5.8,6.9,64,0.00,,,0.00,946.00,VWS V14.01,2013-07-18 16:48:00,
2013-07-18 11:49:00,92.9,78.0,30.12,SW,216,5.8,8.1,62,0.00,,,0.00,935.00,VWS V14.01,2013-07-18 16:49:00,
2013-07-18 11:50:00,93.0,78.1,30.12,West,275,5.8,5.8,62,0.00,,,0.00,923.00,VWS V14.01,2013-07-18 16:50:00,
2013-07-18 11:51:00,93.2,78.2,30.11,South,181,5.8,5.8,62,0.00,,,0.00,921.00,VWS V14.01,2013-07-18 16:51:00,
2013-07-18 11:53:00,92.7,77.8,30.11,WSW,245,9.2,11.5,62,0.00,,,0.00,918.00,VWS V14.01,2013-07-18 16:53:00,
2013-07-18 11:54:00,92.4,75.5,30.11,West,270,9.2,10.3,58,0.00,,,0.00,904.00,VWS V14.01,2013-07-18 16:54:00,
2013-07-18 11:55:00,92.3,75.4,30.11,SW,227,4.6,9.2,58,0.00,,,0.00,907.00,VWS V14.01,2013-07-18 16:55:00,
2013-07-18 11:56:00,92.1,76.7,30.11,WSW,252,9.2,13.8,61,0.00,,,0.00,900.00,VWS V14.01,2013-07-18 16:56:00,
2013-07-18 11:57:00,92.1,76.7,30.11,West,264,9.2,9.2,61,0.00,,,0.00,904.00,VWS V14.01,2013-07-18 16:57:00,
2013-07-18 11:58:00,91.9,76.0,30.11,WSW,239,10.3,12.6,60,0.00,,,0.00,902.00,VWS V14.01,2013-07-18 16:58:00,
2013-07-18 11:59:00,91.8,76.4,30.12,WSW,251,8.1,8.1,61,0.00,,,0.00,911.00,VWS V14.01,2013-07-18 16:59:00,
2013-07-18 12:01:00,91.9,76.0,30.11,SSW,195,8.1,8.1,60,0.00,,,0.00,912.00,VWS V14.01,2013-07-18 17:01:00,
2013-07-18 12:02:00,92.0,76.1,30.11,South,187,4.6,6.9,60,0.00,,,0.00,907.00,VWS V14.01,2013-07-18 17:02:00,
2013-07-18 12:04:00,92.2,76.3,30.11,SE,135,1.1,2.3,60,0.00,,,0.00,907.00,VWS V14.01,2013-07-18 17:04:00,
2013-07-18 12:06:00,92.6,76.2,30.11,South,174,14.9,14.9,59,0.00,,,0.00,912.00,VWS V14.01,2013-07-18 17:06:00,
2013-07-18 12:07:00,92.5,76.1,30.11,SW,218,6.9,6.9,59,0.00,,,0.00,911.00,VWS V14.01,2013-07-18 17:07:00,
2013-07-18 12:08:00,92.5,75.6,30.11,West,264,12.6,12.6,58,0.00,,,0.00,925.00,VWS V14.01,2013-07-18 17:08:00,
2013-07-18 12:09:00,92.5,76.1,30.11,WNW,282,3.4,4.6,59,0.00,,,0.00,926.00,VWS V14.01,2013-07-18 17:09:00,
2013-07-18 12:12:00,92.8,76.9,30.11,West,260,10.3,11.5,60,0.00,,,0.00,932.00,VWS V14.01,2013-07-18 17:12:00,
2013-07-18 12:13:00,92.7,75.8,30.11,SW,227,5.8,8.1,58,0.00,,,0.00,951.00,VWS V14.01,2013-07-18 17:13:00,
2013-07-18 12:14:00,92.7,77.3,30.11,SW,222,5.8,8.1,61,0.00,,,0.00,951.00,VWS V14.01,2013-07-18 17:14:00,
2013-07-18 12:17:00,93.0,78.1,30.11,SW,221,9.2,9.2,62,0.00,,,0.00,969.00,VWS V14.01,2013-07-18 17:17:00,
2013-07-18 12:18:00,93.1,76.7,30.11,SE,145,8.1,8.1,59,0.00,,,0.00,963.00,VWS V14.01,2013-07-18 17:18:00,
2013-07-18 12:19:00,93.1,77.2,30.11,SW,222,5.8,9.2,60,0.00,,,0.00,963.00,VWS V14.01,2013-07-18 17:19:00,
2013-07-18 12:20:00,93.2,77.3,30.11,SW,230,8.1,10.3,60,0.00,,,0.00,958.00,VWS V14.01,2013-07-18 17:20:00,
2013-07-18 12:22:00,92.9,76.5,30.11,SSW,212,9.2,11.5,59,0.00,,,0.00,953.00,VWS V14.01,2013-07-18 17:22:00,
2013-07-18 12:23:00,93.1,77.2,30.11,SW,224,6.9,11.5,60,0.00,,,0.00,965.00,VWS V14.01,2013-07-18 17:23:00,
2013-07-18 12:24:00,93.1,76.7,30.11,WSW,247,8.1,8.1,59,0.00,,,0.00,944.00,VWS V14.01,2013-07-18 17:24:00,
2013-07-18 12:26:00,93.1,76.7,30.11,West,265,11.5,13.8,59,0.00,,,0.00,930.00,VWS V14.01,2013-07-18 17:26:00,
2013-07-18 12:28:00,92.8,75.9,30.11,South,188,9.2,10.3,58,0.00,,,0.00,953.00,VWS V14.01,2013-07-18 17:28:00,
2013-07-18 12:29:00,92.9,75.9,30.11,WSW,247,5.8,10.3,58,0.00,,,0.00,953.00,VWS V14.01,2013-07-18 17:29:00,
2013-07-18 12:32:00,93.1,75.6,30.10,South,170,11.5,11.5,57,0.00,,,0.00,990.00,VWS V14.01,2013-07-18 17:32:00,
2013-07-18 12:34:00,93.4,78.9,30.10,SW,217,8.1,8.1,63,0.00,,,0.00,956.00,VWS V14.01,2013-07-18 17:34:00,
2013-07-18 12:37:00,93.1,75.1,30.10,SSW,208,5.8,9.2,56,0.00,,,0.00,946.00,VWS V14.01,2013-07-18 17:37:00,
2013-07-18 12:39:00,93.3,77.3,30.10,SSW,211,4.6,5.8,60,0.00,,,0.00,954.00,VWS V14.01,2013-07-18 17:39:00,
2013-07-18 12:40:00,93.5,77.0,30.10,South,180,9.2,9.2,59,0.00,,,0.00,960.00,VWS V14.01,2013-07-18 17:40:00,
2013-07-18 12:42:00,93.8,76.8,30.10,SSW,201,9.2,9.2,58,0.00,,,0.00,967.00,VWS V14.01,2013-07-18 17:42:00,
2013-07-18 12:44:00,93.9,76.9,30.10,WSW,242,8.1,11.5,58,0.00,,,0.00,946.00,VWS V14.01,2013-07-18 17:44:00,
2013-07-18 12:45:00,94.0,77.5,30.10,South,188,9.2,9.2,59,0.00,,,0.00,946.00,VWS V14.01,2013-07-18 17:45:00,
2013-07-18 12:46:00,94.0,76.5,30.10,SW,226,3.4,5.8,57,0.00,,,0.00,958.00,VWS V14.01,2013-07-18 17:46:00,
2013-07-18 12:47:00,93.8,75.7,30.10,SSW,194,6.9,10.3,56,0.00,,,0.00,965.00,VWS V14.01,2013-07-18 17:47:00,
2013-07-18 12:50:00,93.2,75.7,30.10,WSW,241,10.3,14.9,57,0.00,,,0.00,988.00,VWS V14.01,2013-07-18 17:50:00,
2013-07-18 12:51:00,93.1,78.2,30.10,SSW,204,4.6,8.1,62,0.00,,,0.00,977.00,VWS V14.01,2013-07-18 17:51:00,
2013-07-18 12:52:00,93.2,77.3,30.10,WSW,239,14.9,14.9,60,0.00,,,0.00,977.00,VWS V14.01,2013-07-18 17:52:00,
2013-07-18 12:53:00,93.2,77.3,30.09,WSW,243,9.2,12.6,60,0.00,,,0.00,947.00,VWS V14.01,2013-07-18 17:53:00,
2013-07-18 12:55:00,93.2,76.2,30.09,WSW,243,8.1,11.5,58,0.00,,,0.00,933.00,VWS V14.01,2013-07-18 17:55:00,
2013-07-18 12:56:00,93.2,76.2,30.09,South,174,9.2,9.2,58,0.00,,,0.00,937.00,VWS V14.01,2013-07-18 17:56:00,
2013-07-18 12:57:00,93.6,76.1,30.09,SW,224,5.8,10.3,57,0.00,,,0.00,933.00,VWS V14.01,2013-07-18 17:57:00,
2013-07-18 12:58:00,93.6,75.6,30.09,South,182,12.6,12.6,56,0.00,,,0.00,933.00,VWS V14.01,2013-07-18 17:58:00,
2013-07-18 12:59:00,93.8,75.7,30.09,SW,231,5.8,5.8,56,0.00,,,0.00,937.00,VWS V14.01,2013-07-18 17:59:00,
2013-07-18 13:01:00,93.7,76.7,30.09,SSW,197,5.8,8.1,58,0.00,,,0.00,944.00,VWS V14.01,2013-07-18 18:01:00,
2013-07-18 13:02:00,93.7,75.6,30.09,SSW,213,5.8,10.3,56,0.00,,,0.00,962.00,VWS V14.01,2013-07-18 18:02:00,
2013-07-18 13:03:00,93.6,75.0,30.09,SSE,150,5.8,6.9,55,0.00,,,0.00,972.00,VWS V14.01,2013-07-18 18:03:00,
2013-07-18 13:05:00,93.8,77.3,30.09,WSW,241,2.3,10.3,59,0.00,,,0.00,983.00,VWS V14.01,2013-07-18 18:05:00,
2013-07-18 13:07:00,94.0,78.0,30.09,South,171,5.8,12.6,60,0.00,,,0.00,983.00,VWS V14.01,2013-07-18 18:07:00,
2013-07-18 13:08:00,94.0,78.0,30.09,SW,222,6.9,6.9,60,0.00,,,0.00,983.00,VWS V14.01,2013-07-18 18:08:00,
2013-07-18 13:09:00,94.2,76.6,30.09,WSW,239,12.6,16.1,57,0.00,,,0.00,981.00,VWS V14.01,2013-07-18 18:09:00,
2013-07-18 13:11:00,93.9,74.2,30.09,WSW,253,14.9,14.9,53,0.00,,,0.00,990.00,VWS V14.01,2013-07-18 18:11:00,
2013-07-18 13:13:00,93.5,74.9,30.09,SW,232,8.1,13.8,55,0.00,,,0.00,953.00,VWS V14.01,2013-07-18 18:13:00,
2013-07-18 13:14:00,93.5,75.5,30.09,West,276,8.1,8.1,56,0.00,,,0.00,942.00,VWS V14.01,2013-07-18 18:14:00,
2013-07-18 13:15:00,93.4,75.9,30.09,SW,224,5.8,6.9,57,0.00,,,0.00,949.00,VWS V14.01,2013-07-18 18:15:00,
2013-07-18 13:16:00,93.7,76.2,30.09,SSW,209,4.6,10.3,57,0.00,,,0.00,953.00,VWS V14.01,2013-07-18 18:16:00,
2013-07-18 13:19:00,94.4,76.8,30.09,South,174,6.9,9.2,57,0.00,,,0.00,947.00,VWS V14.01,2013-07-18 18:19:00,
2013-07-18 13:20:00,94.8,76.7,30.09,SSW,205,3.4,10.3,56,0.00,,,0.00,942.00,VWS V14.01,2013-07-18 18:20:00,
2013-07-18 13:21:00,94.7,75.5,30.09,SSW,208,12.6,12.6,54,0.00,,,0.00,930.00,VWS V14.01,2013-07-18 18:21:00,
2013-07-18 13:22:00,94.6,75.9,30.09,SW,231,8.1,12.6,55,0.00,,,0.00,935.00,VWS V14.01,2013-07-18 18:22:00,
2013-07-18 13:24:00,94.4,74.1,30.09,SW,232,8.1,8.1,52,0.00,,,0.00,944.00,VWS V14.01,2013-07-18 18:24:00,
2013-07-18 13:26:00,94.4,74.1,30.08,WNW,301,8.1,8.1,52,0.00,,,0.00,956.00,VWS V14.01,2013-07-18 18:26:00,
2013-07-18 13:27:00,94.3,74.0,30.08,West,278,5.8,8.1,52,0.00,,,0.00,956.00,VWS V14.01,2013-07-18 18:27:00,
2013-07-18 13:28:00,93.8,74.1,30.08,West,265,6.9,8.1,53,0.00,,,0.00,123.00,VWS V14.01,2013-07-18 18:28:00,
2013-07-18 13:29:00,93.4,74.3,30.08,West,279,10.3,12.6,54,0.00,,,0.00,128.00,VWS V14.01,2013-07-18 18:29:00,
2013-07-18 13:30:00,93.0,75.0,30.08,WNW,301,10.3,10.3,56,0.00,,,0.00,128.00,VWS V14.01,2013-07-18 18:30:00,
2013-07-18 13:32:00,92.5,75.1,30.08,West,266,5.8,11.5,57,0.00,,,0.00,997.00,VWS V14.01,2013-07-18 18:32:00,
2013-07-18 13:33:00,92.7,76.3,30.08,SW,223,5.8,8.1,59,0.00,,,0.00,997.00,VWS V14.01,2013-07-18 18:33:00,
2013-07-18 13:35:00,92.8,75.3,30.08,SSW,213,13.8,13.8,57,0.00,,,0.00,1000.00,VWS V14.01,2013-07-18 18:35:00,
2013-07-18 13:36:00,92.9,77.0,30.08,West,260,8.1,8.1,60,0.00,,,0.00,1000.00,VWS V14.01,2013-07-18 18:36:00,
2013-07-18 13:37:00,93.4,74.8,30.08,West,261,8.1,12.6,55,0.00,,,0.00,1000.00,VWS V14.01,2013-07-18 18:37:00,
2013-07-18 13:39:00,93.2,74.1,30.08,WSW,252,12.6,12.6,54,0.00,,,0.00,1000.00,VWS V14.01,2013-07-18 18:39:00,
2013-07-18 13:40:00,93.0,73.9,30.08,WSW,245,6.9,8.1,54,0.00,,,0.00,1000.00,VWS V14.01,2013-07-18 18:40:00,
2013-07-18 13:41:00,92.6,74.1,30.08,WNW,290,9.2,13.8,55,0.00,,,0.00,179.00,VWS V14.01,2013-07-18 18:41:00,
2013-07-18 13:42:00,92.6,75.7,30.08,WNW,283,10.3,10.3,58,0.00,,,0.00,995.00,VWS V14.01,2013-07-18 18:42:00,
2013-07-18 13:44:00,92.8,75.3,30.08,WSW,239,13.8,13.8,57,0.00,,,0.00,1007.00,VWS V14.01,2013-07-18 18:44:00,
2013-07-18 13:45:00,93.3,76.8,30.08,SW,233,6.9,9.2,59,0.00,,,0.00,1007.00,VWS V14.01,2013-07-18 18:45:00,
2013-07-18 13:46:00,93.4,76.9,30.08,WSW,245,6.9,6.9,59,0.00,,,0.00,991.00,VWS V14.01,2013-07-18 18:46:00,
2013-07-18 13:48:00,93.9,75.3,30.07,WSW,239,6.9,10.3,55,0.00,,,0.00,983.00,VWS V14.01,2013-07-18 18:48:00,
2013-07-18 13:50:00,94.0,75.4,30.07,SSW,193,8.1,8.1,55,0.00,,,0.00,993.00,VWS V14.01,2013-07-18 18:50:00,
2013-07-18 13:51:00,94.2,76.1,30.07,West,266,9.2,9.2,56,0.00,,,0.00,970.00,VWS V14.01,2013-07-18 18:51:00,
2013-07-18 13:53:00,94.4,75.8,30.07,SW,223,6.9,6.9,55,0.00,,,0.00,958.00,VWS V14.01,2013-07-18 18:53:00,
2013-07-18 13:56:00,94.2,75.0,30.07,SW,233,8.1,11.5,54,0.00,,,0.00,933.00,VWS V14.01,2013-07-18 18:56:00,
2013-07-18 13:57:00,94.1,74.9,30.07,SW,216,10.3,10.3,54,0.00,,,0.00,933.00,VWS V14.01,2013-07-18 18:57:00,
2013-07-18 13:58:00,94.2,76.1,30.07,SSW,198,6.9,9.2,56,0.00,,,0.00,918.00,VWS V14.01,2013-07-18 18:58:00,
2013-07-18 14:02:00,94.5,75.8,30.07,SW,226,6.9,11.5,55,0.00,,,0.00,900.00,VWS V14.01,2013-07-18 19:02:00,
2013-07-18 14:03:00,94.4,75.2,30.07,SSW,199,3.4,8.1,54,0.00,,,0.00,904.00,VWS V14.01,2013-07-18 19:03:00,
2013-07-18 14:05:00,94.4,75.2,30.06,West,263,5.8,13.8,54,0.00,,,0.00,911.00,VWS V14.01,2013-07-18 19:05:00,
2013-07-18 14:08:00,94.2,75.6,30.06,SSW,196,13.8,13.8,55,0.00,,,0.00,911.00,VWS V14.01,2013-07-18 19:08:00,
2013-07-18 14:09:00,94.2,76.1,30.06,WSW,248,9.2,9.2,56,0.00,,,0.00,914.00,VWS V14.01,2013-07-18 19:09:00,
2013-07-18 14:11:00,94.4,75.2,30.06,WSW,256,6.9,10.3,54,0.00,,,0.00,907.00,VWS V14.01,2013-07-18 19:11:00,
2013-07-18 14:13:00,94.1,74.9,30.06,West,261,12.6,14.9,54,0.00,,,0.00,905.00,VWS V14.01,2013-07-18 19:13:00,
2013-07-18 14:14:00,94.0,73.7,30.06,WSW,237,11.5,16.1,52,0.00,,,0.00,905.00,VWS V14.01,2013-07-18 19:14:00,
2013-07-18 14:15:00,93.9,73.6,30.06,WSW,256,9.2,9.2,52,0.00,,,0.00,905.00,VWS V14.01,2013-07-18 19:15:00,
2013-07-18 14:17:00,94.3,75.7,30.06,WSW,257,11.5,13.8,55,0.00,,,0.00,895.00,VWS V14.01,2013-07-18 19:17:00,
2013-07-18 14:19:00,94.5,74.2,30.06,WSW,252,9.2,10.3,52,0.00,,,0.00,867.00,VWS V14.01,2013-07-18 19:19:00,
2013-07-18 14:20:00,94.3,74.6,30.06,WSW,255,6.9,8.1,53,0.00,,,0.00,900.00,VWS V14.01,2013-07-18 19:20:00,
2013-07-18 14:23:00,94.4,76.3,30.06,WSW,239,9.2,11.5,56,0.00,,,0.00,900.00,VWS V14.01,2013-07-18 19:23:00,
2013-07-18 14:25:00,94.6,76.5,30.06,West,273,6.9,9.2,56,0.00,,,0.00,916.00,VWS V14.01,2013-07-18 19:25:00,
2013-07-18 14:26:00,94.6,76.5,30.06,WSW,238,8.1,9.2,56,0.00,,,0.00,916.00,VWS V14.01,2013-07-18 19:26:00,
2013-07-18 14:28:00,95.1,74.7,30.06,SSE,166,3.4,12.6,52,0.00,,,0.00,921.00,VWS V14.01,2013-07-18 19:28:00,
2013-07-18 14:30:00,95.1,74.7,30.06,South,191,6.9,11.5,52,0.00,,,0.00,909.00,VWS V14.01,2013-07-18 19:30:00,
2013-07-18 14:31:00,95.1,74.7,30.06,WSW,247,14.9,14.9,52,0.00,,,0.00,909.00,VWS V14.01,2013-07-18 19:31:00,
2013-07-18 14:33:00,95.1,74.7,30.06,SSW,208,6.9,11.5,52,0.00,,,0.00,854.00,VWS V14.01,2013-07-18 19:33:00,
2013-07-18 14:36:00,95.1,74.7,30.06,West,266,9.2,9.2,52,0.00,,,0.00,877.00,VWS V14.01,2013-07-18 19:36:00,
2013-07-18 14:37:00,94.9,75.7,30.06,WSW,245,5.8,9.2,54,0.00,,,0.00,881.00,VWS V14.01,2013-07-18 19:37:00,
2013-07-18 14:38:00,94.8,75.6,30.05,SSW,203,11.5,11.5,54,0.00,,,0.00,881.00,VWS V14.01,2013-07-18 19:38:00,
2013-07-18 14:41:00,94.9,75.1,30.05,South,189,2.3,11.5,53,0.00,,,0.00,867.00,VWS V14.01,2013-07-18 19:41:00,
2013-07-18 14:43:00,94.6,74.8,30.05,South,180,8.1,9.2,53,0.00,,,0.00,863.00,VWS V14.01,2013-07-18 19:43:00,
2013-07-18 14:47:00,94.9,75.1,30.05,West,265,14.9,14.9,53,0.00,,,0.00,858.00,VWS V14.01,2013-07-18 19:47:00,
2013-07-18 14:48:00,94.7,74.3,30.05,SSW,211,8.1,13.8,52,0.00,,,0.00,856.00,VWS V14.01,2013-07-18 19:48:00,
2013-07-18 14:49:00,94.7,74.3,30.05,SSW,210,5.8,5.8,52,0.00,,,0.00,858.00,VWS V14.01,2013-07-18 19:49:00,
2013-07-18 14:53:00,94.9,75.7,30.05,SW,214,13.8,13.8,54,0.00,,,0.00,858.00,VWS V14.01,2013-07-18 19:53:00,
2013-07-18 14:54:00,95.2,76.5,30.05,SW,231,8.1,9.2,55,0.00,,,0.00,854.00,VWS V14.01,2013-07-18 19:54:00,
2013-07-18 14:55:00,95.5,75.1,30.05,SSW,205,4.6,5.8,52,0.00,,,0.00,853.00,VWS V14.01,2013-07-18 19:55:00,
2013-07-18 14:58:00,95.3,75.5,30.04,WSW,247,16.1,16.1,53,0.00,,,0.00,141.00,VWS V14.01,2013-07-18 19:58:00,
2013-07-18 14:59:00,94.7,74.3,30.04,WSW,256,8.1,12.6,52,0.00,,,0.00,141.00,VWS V14.01,2013-07-18 19:59:00,
2013-07-18 15:01:00,94.2,76.1,30.04,SSW,197,6.9,10.3,56,0.00,,,0.00,884.00,VWS V14.01,2013-07-18 20:01:00,
2013-07-18 15:03:00,94.1,76.6,30.04,SSE,166,11.5,11.5,57,0.00,,,0.00,884.00,VWS V14.01,2013-07-18 20:03:00,
2013-07-18 15:04:00,94.1,76.6,30.04,South,189,5.8,11.5,57,0.00,,,0.00,884.00,VWS V14.01,2013-07-18 20:04:00,
2013-07-18 15:06:00,94.0,76.5,30.04,SSE,152,8.1,13.8,57,0.00,,,0.00,865.00,VWS V14.01,2013-07-18 20:06:00,
2013-07-18 15:07:00,94.2,76.1,30.04,SW,233,6.9,8.1,56,0.00,,,0.00,872.00,VWS V14.01,2013-07-18 20:07:00,
2013-07-18 15:09:00,94.4,76.8,30.04,SW,226,2.3,5.8,57,0.00,,,0.00,863.00,VWS V14.01,2013-07-18 20:09:00,
2013-07-18 15:11:00,94.2,75.0,30.03,SW,227,8.1,10.3,54,0.00,,,0.00,831.00,VWS V14.01,2013-07-18 20:11:00,
2013-07-18 15:12:00,94.3,76.7,30.03,WSW,241,6.9,12.6,57,0.00,,,0.00,826.00,VWS V14.01,2013-07-18 20:12:00,
2013-07-18 15:14:00,94.5,75.3,30.03,WSW,244,11.5,14.9,54,0.00,,,0.00,810.00,VWS V14.01,2013-07-18 20:14:00,
2013-07-18 15:15:00,94.5,75.3,30.03,WSW,253,10.3,11.5,54,0.00,,,0.00,805.00,VWS V14.01,2013-07-18 20:15:00,
2013-07-18 15:17:00,94.4,74.6,30.03,WSW,243,14.9,14.9,53,0.00,,,0.00,812.00,VWS V14.01,2013-07-18 20:17:00,
2013-07-18 15:18:00,94.4,74.6,30.03,WSW,239,9.2,9.2,53,0.00,,,0.00,809.00,VWS V14.01,2013-07-18 20:18:00,
2013-07-18 15:20:00,94.8,76.1,30.03,WSW,247,9.2,12.6,55,0.00,,,0.00,800.00,VWS V14.01,2013-07-18 20:20:00,
2013-07-18 15:21:00,94.8,76.1,30.03,WSW,251,10.3,10.3,55,0.00,,,0.00,805.00,VWS V14.01,2013-07-18 20:21:00,
2013-07-18 15:23:00,94.5,75.3,30.03,West,279,6.9,6.9,54,0.00,,,0.00,800.00,VWS V14.01,2013-07-18 20:23:00,
2013-07-18 15:24:00,93.7,74.6,30.03,SW,221,5.8,8.1,54,0.00,,,0.00,130.00,VWS V14.01,2013-07-18 20:24:00,
2013-07-18 15:26:00,93.5,76.0,30.03,West,264,6.9,9.2,57,0.00,,,0.00,824.00,VWS V14.01,2013-07-18 20:26:00,
2013-07-18 15:27:00,93.5,76.0,30.03,South,190,9.2,9.2,57,0.00,,,0.00,819.00,VWS V14.01,2013-07-18 20:27:00,
2013-07-18 15:28:00,93.6,76.1,30.03,WSW,246,10.3,10.3,57,0.00,,,0.00,814.00,VWS V14.01,2013-07-18 20:28:00,
2013-07-18 15:30:00,93.7,74.6,30.02,SSE,168,5.8,14.9,54,0.00,,,0.00,761.00,VWS V14.01,2013-07-18 20:30:00,
2013-07-18 15:31:00,93.9,75.8,30.03,West,279,5.8,9.2,56,0.00,,,0.00,835.00,VWS V14.01,2013-07-18 20:31:00,
2013-07-18 15:33:00,94.5,76.4,30.02,WSW,243,6.9,10.3,56,0.00,,,0.00,824.00,VWS V14.01,2013-07-18 20:33:00,
2013-07-18 15:34:00,94.5,75.8,30.03,SSW,210,2.3,5.8,55,0.00,,,0.00,824.00,VWS V14.01,2013-07-18 20:34:00,
2013-07-18 15:35:00,94.2,75.6,30.02,SSW,204,2.3,10.3,55,0.00,,,0.00,160.00,VWS V14.01,2013-07-18 20:35:00,
2013-07-18 15:37:00,94.0,75.9,30.02,WSW,258,2.3,6.9,56,0.00,,,0.00,828.00,VWS V14.01,2013-07-18 20:37:00,
2013-07-18 15:38:00,93.9,75.3,30.02,South,189,8.1,9.2,55,0.00,,,0.00,828.00,VWS V14.01,2013-07-18 20:38:00,
2013-07-18 15:39:00,94.0,75.4,30.02,SW,217,11.5,11.5,55,0.00,,,0.00,828.00,VWS V14.01,2013-07-18 20:39:00,
2013-07-18 15:41:00,94.5,76.4,30.02,SSW,195,13.8,13.8,56,0.00,,,0.00,828.00,VWS V14.01,2013-07-18 20:41:00,
2013-07-18 15:42:00,94.4,75.2,30.02,West,262,6.9,13.8,54,0.00,,,0.00,830.00,VWS V14.01,2013-07-18 20:42:00,
2013-07-18 15:44:00,93.9,75.3,30.02,WSW,252,11.5,11.5,55,0.00,,,0.00,146.00,VWS V14.01,2013-07-18 20:44:00,
2013-07-18 15:45:00,93.7,75.1,30.02,West,265,8.1,8.1,55,0.00,,,0.00,786.00,VWS V14.01,2013-07-18 20:45:00,
2013-07-18 15:46:00,93.8,76.8,30.02,WSW,254,5.8,10.3,58,0.00,,,0.00,759.00,VWS V14.01,2013-07-18 20:46:00,
2013-07-18 15:48:00,94.1,76.0,30.02,SW,214,9.2,12.6,56,0.00,,,0.00,786.00,VWS V14.01,2013-07-18 20:48:00,
2013-07-18 15:49:00,94.4,75.2,30.02,SW,216,12.6,12.6,54,0.00,,,0.00,784.00,VWS V14.01,2013-07-18 20:49:00,
2013-07-18 15:50:00,94.6,75.4,30.02,WSW,242,8.1,12.6,54,0.00,,,0.00,784.00,VWS V14.01,2013-07-18 20:50:00,
2013-07-18 15:51:00,94.8,75.0,30.02,West,268,16.1,16.1,53,0.00,,,0.00,780.00,VWS V14.01,2013-07-18 20:51:00,
2013-07-18 15:52:00,94.6,74.3,30.02,WSW,249,9.2,12.6,52,0.00,,,0.00,770.00,VWS V14.01,2013-07-18 20:52:00,
2013-07-18 15:54:00,94.6,75.4,30.02,WSW,246,11.5,14.9,54,0.00,,,0.00,775.00,VWS V14.01,2013-07-18 20:54:00,
2013-07-18 15:56:00,94.5,75.3,30.02,West,273,11.5,11.5,54,0.00,,,0.00,770.00,VWS V14.01,2013-07-18 20:56:00,
2013-07-18 15:58:00,94.3,76.2,30.02,WSW,250,10.3,11.5,56,0.00,,,0.00,791.00,VWS V14.01,2013-07-18 20:58:00,
2013-07-18 15:59:00,94.3,75.7,30.02,SW,222,4.6,10.3,55,0.00,,,0.00,791.00,VWS V14.01,2013-07-18 20:59:00,
2013-07-18 16:00:00,94.5,76.4,30.02,West,278,9.2,10.3,56,0.00,,,0.00,779.00,VWS V14.01,2013-07-18 21:00:00,
2013-07-18 16:01:00,94.5,76.4,30.02,West,264,9.2,9.2,56,0.00,,,0.00,772.00,VWS V14.01,2013-07-18 21:01:00,
2013-07-18 16:03:00,94.6,77.0,30.02,West,270,8.1,16.1,57,0.00,,,0.00,737.00,VWS V14.01,2013-07-18 21:03:00,
2013-07-18 16:05:00,94.6,77.0,30.02,SW,233,18.4,19.5,57,0.00,,,0.00,719.00,VWS V14.01,2013-07-18 21:05:00,
2013-07-18 16:06:00,94.5,76.9,30.02,WSW,250,13.8,19.5,57,0.00,,,0.00,719.00,VWS V14.01,2013-07-18 21:06:00,
2013-07-18 16:07:00,94.2,76.6,30.02,SSW,205,11.5,16.1,57,0.00,,,0.00,715.00,VWS V14.01,2013-07-18 21:07:00,
2013-07-18 16:08:00,93.9,76.4,30.02,West,274,6.9,8.1,57,0.00,,,0.00,715.00,VWS V14.01,2013-07-18 21:08:00,
2013-07-18 16:12:00,93.2,75.7,30.02,West,262,14.9,14.9,57,0.00,,,0.00,733.00,VWS V14.01,2013-07-18 21:12:00,
2013-07-18 16:13:00,92.9,75.4,30.02,West,279,12.6,14.9,57,0.00,,,0.00,733.00,VWS V14.01,2013-07-18 21:13:00,
2013-07-18 16:14:00,92.8,75.9,30.02,WSW,241,14.9,14.9,58,0.00,,,0.00,735.00,VWS V14.01,2013-07-18 21:14:00,
2013-07-18 16:17:00,93.0,76.6,30.02,West,261,9.2,13.8,59,0.00,,,0.00,728.00,VWS V14.01,2013-07-18 21:17:00,
2013-07-18 16:18:00,93.0,76.1,30.02,West,262,5.8,13.8,58,0.00,,,0.00,733.00,VWS V14.01,2013-07-18 21:18:00,
2013-07-18 16:19:00,93.0,76.1,30.02,WSW,243,6.9,10.3,58,0.00,,,0.00,726.00,VWS V14.01,2013-07-18 21:19:00,
2013-07-18 16:22:00,93.1,76.1,30.02,West,265,11.5,18.4,58,0.00,,,0.00,721.00,VWS V14.01,2013-07-18 21:22:00,
2013-07-18 16:23:00,93.1,76.1,30.02,SW,220,16.1,16.1,58,0.00,,,0.00,722.00,VWS V14.01,2013-07-18 21:23:00,
2013-07-18 16:24:00,93.2,76.2,30.02,SSW,213,8.1,17.2,58,0.00,,,0.00,722.00,VWS V14.01,2013-07-18 21:24:00,
2013-07-18 16:25:00,93.3,76.3,30.02,SSW,194,8.1,12.6,58,0.00,,,0.00,724.00,VWS V14.01,2013-07-18 21:25:00,
2013-07-18 16:28:00,93.2,76.2,30.02,SW,233,12.6,14.9,58,0.00,,,0.00,722.00,VWS V14.01,2013-07-18 21:28:00,
2013-07-18 16:29:00,92.9,75.4,30.02,SW,230,10.3,10.3,57,0.00,,,0.00,721.00,VWS V14.01,2013-07-18 21:29:00,
2013-07-18 16:31:00,92.6,75.7,30.02,West,262,11.5,16.1,58,0.00,,,0.00,724.00,VWS V14.01,2013-07-18 21:31:00,
2013-07-18 16:34:00,92.9,75.9,30.02,West,270,6.9,9.2,58,0.00,,,0.00,703.00,VWS V14.01,2013-07-18 21:34:00,
2013-07-18 16:37:00,92.8,75.9,30.02,WSW,241,9.2,10.3,58,0.00,,,0.00,679.00,VWS V14.01,2013-07-18 21:37:00,
2013-07-18 16:40:00,92.7,75.8,30.02,West,260,10.3,11.5,58,0.00,,,0.00,650.00,VWS V14.01,2013-07-18 21:40:00,
2013-07-18 16:42:00,92.6,75.7,30.02,SW,222,11.5,11.5,58,0.00,,,0.00,628.00,VWS V14.01,2013-07-18 21:42:00,
2013-07-18 16:43:00,92.7,77.3,30.02,SSW,207,3.4,4.6,61,0.00,,,0.00,622.00,VWS V14.01,2013-07-18 21:43:00,
2013-07-18 16:45:00,92.8,76.4,30.01,South,190,9.2,9.2,59,0.00,,,0.00,612.00,VWS V14.01,2013-07-18 21:45:00,
2013-07-18 16:47:00,93.0,76.6,30.01,West,260,4.6,6.9,59,0.00,,,0.00,605.00,VWS V14.01,2013-07-18 21:47:00,
2013-07-18 16:48:00,93.2,76.8,30.01,South,183,10.3,10.3,59,0.00,,,0.00,603.00,VWS V14.01,2013-07-18 21:48:00,
2013-07-18 16:50:00,93.5,76.0,30.01,WSW,238,10.3,13.8,57,0.00,,,0.00,592.00,VWS V14.01,2013-07-18 21:50:00,
2013-07-18 16:51:00,93.5,76.0,30.01,WSW,238,10.3,13.8,57,0.00,,,0.00,592.00,VWS V14.01,2013-07-18 21:51:00,
2013-07-18 16:52:00,93.5,76.0,30.01,SSW,207,5.8,9.2,57,0.00,,,0.00,587.00,VWS V14.01,2013-07-18 21:52:00,
2013-07-18 16:53:00,93.5,76.0,30.01,SW,216,10.3,10.3,57,0.00,,,0.00,587.00,VWS V14.01,2013-07-18 21:53:00,
2013-07-18 16:56:00,93.3,75.8,30.01,SW,220,4.6,9.2,57,0.00,,,0.00,573.00,VWS V14.01,2013-07-18 21:56:00,
2013-07-18 16:57:00,93.2,75.2,30.01,West,266,9.2,10.3,56,0.00,,,0.00,566.00,VWS V14.01,2013-07-18 21:57:00,
2013-07-18 16:58:00,93.1,76.1,30.01,West,266,8.1,11.5,58,0.00,,,0.00,557.00,VWS V14.01,2013-07-18 21:58:00,
2013-07-18 16:59:00,93.0,76.1,30.01,WSW,251,13.8,13.8,58,0.00,,,0.00,559.00,VWS V14.01,2013-07-18 21:59:00,
2013-07-18 17:02:00,92.5,75.1,30.00,WNW,290,10.3,10.3,57,0.00,,,0.00,545.00,VWS V14.01,2013-07-18 22:02:00,
2013-07-18 17:03:00,92.2,74.2,30.00,WSW,251,11.5,14.9,56,0.00,,,0.00,541.00,VWS V14.01,2013-07-18 22:03:00,
2013-07-18 17:04:00,92.2,74.8,30.00,West,260,8.1,11.5,57,0.00,,,0.00,541.00,VWS V14.01,2013-07-18 22:04:00,
2013-07-18 17:07:00,92.4,73.9,30.00,SSW,192,6.9,10.3,55,0.00,,,0.00,534.00,VWS V14.01,2013-07-18 22:07:00,
2013-07-18 17:08:00,92.4,74.4,30.00,WSW,253,4.6,5.8,56,0.00,,,0.00,534.00,VWS V14.01,2013-07-18 22:08:00,
2013-07-18 17:09:00,92.1,73.6,30.00,West,273,4.6,8.1,55,0.00,,,0.00,529.00,VWS V14.01,2013-07-18 22:09:00,
2013-07-18 17:10:00,92.1,74.7,30.00,WNW,283,9.2,11.5,57,0.00,,,0.00,527.00,VWS V14.01,2013-07-18 22:10:00,
2013-07-18 17:12:00,92.2,75.3,30.00,WSW,243,6.9,10.3,58,0.00,,,0.00,522.00,VWS V14.01,2013-07-18 22:12:00,
2013-07-18 17:13:00,92.3,75.4,30.00,West,271,6.9,8.1,58,0.00,,,0.00,519.00,VWS V14.01,2013-07-18 22:13:00,
2013-07-18 17:14:00,92.2,74.8,30.00,West,260,12.6,12.6,57,0.00,,,0.00,504.00,VWS V14.01,2013-07-18 22:14:00,
2013-07-18 17:15:00,92.2,75.3,30.00,WSW,256,6.9,11.5,58,0.00,,,0.00,504.00,VWS V14.01,2013-07-18 22:15:00,
2013-07-18 17:18:00,92.1,74.7,30.00,SSW,208,8.1,10.3,57,0.00,,,0.00,455.00,VWS V14.01,2013-07-18 22:18:00,
2013-07-18 17:20:00,92.1,74.7,30.00,West,264,4.6,10.3,57,0.00,,,0.00,485.00,VWS V14.01,2013-07-18 22:20:00,
2013-07-18 17:21:00,92.0,74.6,30.00,WSW,241,6.9,10.3,57,0.00,,,0.00,480.00,VWS V14.01,2013-07-18 22:21:00,
2013-07-18 17:23:00,92.2,75.3,29.99,West,262,10.3,10.3,58,0.00,,,0.00,480.00,VWS V14.01,2013-07-18 22:23:00,
2013-07-18 17:24:00,92.1,74.7,29.99,West,276,8.1,11.5,57,0.00,,,0.00,476.00,VWS V14.01,2013-07-18 22:24:00,
2013-07-18 17:25:00,91.8,75.4,29.99,West,260,12.6,12.6,59,0.00,,,0.00,480.00,VWS V14.01,2013-07-18 22:25:00,
2013-07-18 17:26:00,91.8,75.4,29.99,West,262,5.8,12.6,59,0.00,,,0.00,480.00,VWS V14.01,2013-07-18 22:26:00,
2013-07-18 17:28:00,91.7,75.8,29.99,NW,314,6.9,8.1,60,0.00,,,0.00,466.00,VWS V14.01,2013-07-18 22:28:00,
2013-07-18 17:29:00,91.8,75.4,29.99,SW,235,5.8,9.2,59,0.00,,,0.00,462.00,VWS V14.01,2013-07-18 22:29:00,
2013-07-18 17:31:00,92.0,76.1,29.99,SSW,206,6.9,12.6,60,0.00,,,0.00,457.00,VWS V14.01,2013-07-18 22:31:00,
2013-07-18 17:32:00,92.1,76.2,29.99,WSW,237,6.9,6.9,60,0.00,,,0.00,455.00,VWS V14.01,2013-07-18 22:32:00,
2013-07-18 17:34:00,92.1,75.7,29.99,SW,235,8.1,9.2,59,0.00,,,0.00,450.00,VWS V14.01,2013-07-18 22:34:00,
2013-07-18 17:36:00,92.1,76.7,29.99,SW,224,4.6,11.5,61,0.00,,,0.00,445.00,VWS V14.01,2013-07-18 22:36:00,
2013-07-18 17:37:00,92.2,76.3,29.99,West,262,9.2,13.8,60,0.00,,,0.00,436.00,VWS V14.01,2013-07-18 22:37:00,
2013-07-18 17:39:00,92.1,76.2,29.99,WSW,241,4.6,6.9,60,0.00,,,0.00,429.00,VWS V14.01,2013-07-18 22:39:00,
2013-07-18 17:40:00,92.1,76.2,29.99,West,261,5.8,6.9,60,0.00,,,0.00,429.00,VWS V14.01,2013-07-18 22:40:00,
2013-07-18 17:42:00,92.1,76.7,29.99,SW,218,9.2,11.5,61,0.00,,,0.00,420.00,VWS V14.01,2013-07-18 22:42:00,
2013-07-18 17:45:00,92.2,76.3,29.99,SSW,198,8.1,9.2,60,0.00,,,0.00,413.00,VWS V14.01,2013-07-18 22:45:00,
2013-07-18 17:47:00,91.9,76.0,29.99,West,260,8.1,8.1,60,0.00,,,0.00,408.00,VWS V14.01,2013-07-18 22:47:00,
2013-07-18 17:50:00,91.9,77.0,29.99,WSW,247,9.2,11.5,62,0.00,,,0.00,406.00,VWS V14.01,2013-07-18 22:50:00,
2013-07-18 17:51:00,92.0,76.1,30.00,WSW,247,4.6,11.5,60,0.00,,,0.00,403.00,VWS V14.01,2013-07-18 22:51:00,
2013-07-18 17:52:00,91.9,76.0,29.99,WSW,240,6.9,9.2,60,0.00,,,0.00,406.00,VWS V14.01,2013-07-18 22:52:00,
2013-07-18 17:55:00,91.5,76.2,30.00,SSW,194,6.9,8.1,61,0.00,,,0.00,193.00,VWS V14.01,2013-07-18 22:55:00,
2013-07-18 17:56:00,91.4,76.1,30.00,SW,216,6.9,12.6,61,0.00,,,0.00,197.00,VWS V14.01,2013-07-18 22:56:00,
2013-07-18 17:57:00,91.1,75.8,30.00,West,260,10.3,10.3,61,0.00,,,0.00,221.00,VWS V14.01,2013-07-18 22:57:00,
2013-07-18 17:58:00,91.1,75.8,30.00,WSW,245,5.8,10.3,61,0.00,,,0.00,221.00,VWS V14.01,2013-07-18 22:58:00,
2013-07-18 18:01:00,90.5,75.7,30.00,SW,236,6.9,11.5,62,0.00,,,0.00,56.00,VWS V14.01,2013-07-18 23:01:00,
2013-07-18 18:03:00,90.2,75.9,30.00,West,259,9.2,10.3,63,0.00,,,0.00,49.00,VWS V14.01,2013-07-18 23:03:00,
2013-07-18 18:04:00,90.0,75.7,30.00,WSW,237,8.1,8.1,63,0.00,,,0.00,44.00,VWS V14.01,2013-07-18 23:04:00,
2013-07-18 18:06:00,89.5,75.7,30.00,WSW,255,8.1,8.1,64,0.00,,,0.00,42.00,VWS V14.01,2013-07-18 23:06:00,
2013-07-18 18:07:00,89.4,75.6,30.00,West,266,6.9,9.2,64,0.00,,,0.00,42.00,VWS V14.01,2013-07-18 23:07:00,
2013-07-18 18:08:00,89.3,75.5,30.00,West,268,11.5,11.5,64,0.00,,,0.00,40.00,VWS V14.01,2013-07-18 23:08:00,
2013-07-18 18:09:00,89.2,75.4,30.00,WSW,244,8.1,10.3,64,0.00,,,0.00,40.00,VWS V14.01,2013-07-18 23:09:00,
2013-07-18 18:11:00,88.8,75.5,30.00,WSW,258,9.2,9.2,65,0.00,,,0.00,42.00,VWS V14.01,2013-07-18 23:11:00,
2013-07-18 18:12:00,88.8,75.5,30.00,West,261,8.1,10.3,65,0.00,,,0.00,42.00,VWS V14.01,2013-07-18 23:12:00,
2013-07-18 18:14:00,88.7,75.4,29.99,WSW,248,3.4,5.8,65,0.00,,,0.00,44.00,VWS V14.01,2013-07-18 23:14:00,
2013-07-18 18:15:00,88.6,75.3,29.99,WSW,253,5.8,8.1,65,0.00,,,0.00,44.00,VWS V14.01,2013-07-18 23:15:00,
2013-07-18 18:17:00,88.5,75.7,29.99,WSW,244,6.9,6.9,66,0.00,,,0.00,46.00,VWS V14.01,2013-07-18 23:17:00,
2013-07-18 18:20:00,88.4,75.6,29.99,WSW,251,4.6,5.8,66,0.00,,,0.00,46.00,VWS V14.01,2013-07-18 23:20:00,
2013-07-18 18:22:00,88.2,75.4,29.99,SW,235,4.6,5.8,66,0.00,,,0.00,46.00,VWS V14.01,2013-07-18 23:22:00,
2013-07-18 18:23:00,88.2,75.4,29.99,SW,231,4.6,4.6,66,0.00,,,0.00,46.00,VWS V14.01,2013-07-18 23:23:00,
2013-07-18 18:26:00,88.0,75.7,29.99,SW,220,3.4,6.9,67,0.00,,,0.00,46.00,VWS V14.01,2013-07-18 23:26:00,
2013-07-18 18:27:00,88.0,75.7,29.99,SW,215,3.4,5.8,67,0.00,,,0.00,46.00,VWS V14.01,2013-07-18 23:27:00,
2013-07-18 18:28:00,88.0,75.7,29.99,WSW,258,3.4,4.6,67,0.00,,,0.00,47.00,VWS V14.01,2013-07-18 23:28:00,
2013-07-18 18:31:00,87.9,75.6,29.99,SW,224,5.8,8.1,67,0.00,,,0.00,47.00,VWS V14.01,2013-07-18 23:31:00,
2013-07-18 18:32:00,87.9,76.0,29.99,SW,227,3.4,6.9,68,0.00,,,0.00,47.00,VWS V14.01,2013-07-18 23:32:00,
2013-07-18 18:33:00,87.9,76.0,29.99,SW,231,4.6,4.6,68,0.00,,,0.00,47.00,VWS V14.01,2013-07-18 23:33:00,
2013-07-18 18:34:00,87.7,75.8,29.99,West,263,4.6,5.8,68,0.00,,,0.00,49.00,VWS V14.01,2013-07-18 23:34:00,
2013-07-18 18:35:00,87.6,75.7,29.99,SW,236,6.9,6.9,68,0.00,,,0.00,49.00,VWS V14.01,2013-07-18 23:35:00,
2013-07-18 18:37:00,87.5,75.6,29.98,SW,215,3.4,3.4,68,0.00,,,0.00,49.00,VWS V14.01,2013-07-18 23:37:00,
2013-07-18 18:38:00,87.5,75.6,29.99,SSW,212,4.6,4.6,68,0.00,,,0.00,49.00,VWS V14.01,2013-07-18 23:38:00,
2013-07-18 18:40:00,87.4,76.0,29.98,WSW,256,5.8,5.8,69,0.00,,,0.00,51.00,VWS V14.01,2013-07-18 23:40:00,
2013-07-18 18:42:00,87.2,76.2,29.99,SW,215,3.4,5.8,70,0.00,,,0.00,51.00,VWS V14.01,2013-07-18 23:42:00,
2013-07-18 18:43:00,87.2,76.2,29.98,SSW,204,3.4,3.4,70,0.00,,,0.00,49.00,VWS V14.01,2013-07-18 23:43:00,
2013-07-18 18:45:00,87.1,76.1,29.98,SSW,208,4.6,4.6,70,0.00,,,0.00,47.00,VWS V14.01,2013-07-18 23:45:00,
2013-07-18 18:48:00,87.0,76.0,29.98,SW,220,2.3,2.3,70,0.00,,,0.00,47.00,VWS V14.01,2013-07-18 23:48:00,
2013-07-18 18:49:00,87.0,76.0,29.98,WSW,251,6.9,6.9,70,0.00,,,0.00,47.00,VWS V14.01,2013-07-18 23:49:00,
2013-07-18 18:52:00,87.0,76.5,29.98,SSW,196,6.9,8.1,71,0.00,,,0.00,46.00,VWS V14.01,2013-07-18 23:52:00,
2013-07-18 18:54:00,87.0,76.5,29.98,SSW,204,4.6,4.6,71,0.00,,,0.00,46.00,VWS V14.01,2013-07-18 23:54:00,
2013-07-18 18:55:00,86.9,76.4,29.98,SW,225,2.3,5.8,71,0.00,,,0.00,46.00,VWS V14.01,2013-07-18 23:55:00,
2013-07-18 18:57:00,86.8,76.3,29.98,SSW,204,1.1,3.4,71,0.00,,,0.00,47.00,VWS V14.01,2013-07-18 23:57:00,
2013-07-18 18:59:00,86.7,76.6,29.98,SSW,210,3.4,4.6,72,0.00,,,0.00,47.00,VWS V14.01,2013-07-18 23:59:00,
2013-07-18 19:00:00,86.7,76.2,29.98,SW,236,2.3,4.6,71,0.00,,,0.00,49.00,VWS V14.01,2013-07-19 00:00:00,
2013-07-18 19:01:00,86.7,76.6,29.98,SSW,209,3.4,4.6,72,0.00,,,0.00,51.00,VWS V14.01,2013-07-19 00:01:00,
2013-07-18 19:03:00,86.7,76.6,29.98,WSW,258,4.6,5.8,72,0.00,,,0.00,54.00,VWS V14.01,2013-07-19 00:03:00,
2013-07-18 19:04:00,86.7,76.6,29.98,SSW,211,3.4,5.8,72,0.00,,,0.00,58.00,VWS V14.01,2013-07-19 00:04:00,
2013-07-18 19:05:00,86.7,76.6,29.98,WSW,253,2.3,2.3,72,0.00,,,0.00,58.00,VWS V14.01,2013-07-19 00:05:00,
2013-07-18 19:06:00,86.6,76.5,29.98,SW,218,0.0,1.1,72,0.00,,,0.00,47.00,VWS V14.01,2013-07-19 00:06:00,
2013-07-18 19:07:00,86.6,76.5,29.98,SW,214,5.8,5.8,72,0.00,,,0.00,46.00,VWS V14.01,2013-07-19 00:07:00,
2013-07-18 19:08:00,86.6,76.5,29.98,SW,225,1.1,5.8,72,0.00,,,0.00,47.00,VWS V14.01,2013-07-19 00:08:00,
2013-07-18 19:10:00,86.7,76.6,29.98,SW,234,4.6,5.8,72,0.00,,,0.00,47.00,VWS V14.01,2013-07-19 00:10:00,
2013-07-18 19:12:00,86.8,76.7,29.98,SW,233,3.4,3.4,72,0.00,,,0.00,47.00,VWS V14.01,2013-07-19 00:12:00,
2013-07-18 19:15:00,86.8,76.7,29.97,SW,216,3.4,3.4,72,0.00,,,0.00,51.00,VWS V14.01,2013-07-19 00:15:00,
2013-07-18 19:17:00,86.9,76.8,29.97,SW,220,3.4,4.6,72,0.00,,,0.00,51.00,VWS V14.01,2013-07-19 00:17:00,
2013-07-18 19:18:00,86.9,76.8,29.97,SW,220,4.6,6.9,72,0.00,,,0.00,51.00,VWS V14.01,2013-07-19 00:18:00,
2013-07-18 19:20:00,86.8,76.7,29.97,SSW,210,3.4,3.4,72,0.00,,,0.00,51.00,VWS V14.01,2013-07-19 00:20:00,
2013-07-18 19:23:00,86.8,77.1,29.97,SW,231,4.6,4.6,73,0.00,,,0.00,51.00,VWS V14.01,2013-07-19 00:23:00,
2013-07-18 19:25:00,87.0,76.9,29.97,WSW,239,4.6,5.8,72,0.00,,,0.00,51.00,VWS V14.01,2013-07-19 00:25:00,
2013-07-18 19:26:00,86.9,76.8,29.97,WSW,239,2.3,5.8,72,0.00,,,0.00,51.00,VWS V14.01,2013-07-19 00:26:00,
2013-07-18 19:28:00,87.0,76.9,29.97,SW,214,5.8,6.9,72,0.00,,,0.00,47.00,VWS V14.01,2013-07-19 00:28:00,
2013-07-18 19:29:00,86.9,77.2,29.97,WSW,238,1.1,6.9,73,0.00,,,0.00,47.00,VWS V14.01,2013-07-19 00:29:00,
2013-07-18 19:31:00,86.8,77.1,29.97,WSW,239,1.1,5.8,73,0.00,,,0.00,46.00,VWS V14.01,2013-07-19 00:31:00,
2013-07-18 19:33:00,86.8,77.1,29.97,WSW,238,0.0,1.1,73,0.00,,,0.00,44.00,VWS V14.01,2013-07-19 00:33:00,
2013-07-18 19:34:00,86.7,77.0,29.97,SW,228,1.1,3.4,73,0.00,,,0.00,42.00,VWS V14.01,2013-07-19 00:34:00,
2013-07-18 19:35:00,86.6,76.9,29.97,NW,308,4.6,4.6,73,0.00,,,0.00,42.00,VWS V14.01,2013-07-19 00:35:00,
2013-07-18 19:37:00,86.6,76.9,29.98,SW,233,4.6,5.8,73,0.00,,,0.00,40.00,VWS V14.01,2013-07-19 00:37:00,
2013-07-18 19:39:00,86.5,76.8,29.97,WSW,238,3.4,4.6,73,0.00,,,0.00,37.00,VWS V14.01,2013-07-19 00:39:00,
2013-07-18 19:40:00,86.5,77.2,29.97,WSW,248,3.4,5.8,74,0.00,,,0.00,35.00,VWS V14.01,2013-07-19 00:40:00,
2013-07-18 19:41:00,86.5,77.2,29.98,WSW,248,3.4,3.4,74,0.00,,,0.00,35.00,VWS V14.01,2013-07-19 00:41:00,
2013-07-18 19:42:00,86.5,76.8,29.98,WSW,249,1.1,2.3,73,0.00,,,0.00,33.00,VWS V14.01,2013-07-19 00:42:00,
2013-07-18 19:45:00,86.3,77.0,29.97,SSW,212,5.8,6.9,74,0.00,,,0.00,32.00,VWS V14.01,2013-07-19 00:45:00,
2013-07-18 19:46:00,86.3,77.0,29.97,SW,214,0.0,3.4,74,0.00,,,0.00,32.00,VWS V14.01,2013-07-19 00:46:00,
2013-07-18 19:48:00,86.3,77.0,29.97,SSW,200,4.6,4.6,74,0.00,,,0.00,28.00,VWS V14.01,2013-07-19 00:48:00,
2013-07-18 19:51:00,86.2,76.9,29.97,SSW,204,3.4,4.6,74,0.00,,,0.00,26.00,VWS V14.01,2013-07-19 00:51:00,
2013-07-18 19:53:00,86.1,76.8,29.97,SSW,213,4.6,5.8,74,0.00,,,0.00,25.00,VWS V14.01,2013-07-19 00:53:00,
2013-07-18 19:54:00,86.1,76.8,29.97,SSW,210,3.4,3.4,74,0.00,,,0.00,25.00,VWS V14.01,2013-07-19 00:54:00,
2013-07-18 19:56:00,86.1,77.2,29.97,SSW,193,2.3,4.6,75,0.00,,,0.00,21.00,VWS V14.01,2013-07-19 00:56:00,
2013-07-18 19:57:00,86.1,77.2,29.98,SW,222,1.1,4.6,75,0.00,,,0.00,21.00,VWS V14.01,2013-07-19 00:57:00,
2013-07-18 19:59:00,86.0,77.2,29.97,SSW,207,3.4,3.4,75,0.00,,,0.00,19.00,VWS V14.01,2013-07-19 00:59:00,
2013-07-18 20:01:00,85.7,76.5,29.98,SW,215,1.1,5.8,74,0.00,,,0.00,16.00,VWS V14.01,2013-07-19 01:01:00,
2013-07-18 20:02:00,85.7,76.9,29.98,SSW,199,5.8,5.8,75,0.00,,,0.00,16.00,VWS V14.01,2013-07-19 01:02:00,
2013-07-18 20:03:00,85.7,76.9,29.98,SSW,201,3.4,5.8,75,0.00,,,0.00,16.00,VWS V14.01,2013-07-19 01:03:00,
2013-07-18 20:04:00,85.7,76.9,29.98,SSW,200,3.4,5.8,75,0.00,,,0.00,14.00,VWS V14.01,2013-07-19 01:04:00,
2013-07-18 20:05:00,85.6,76.8,29.98,SSW,212,4.6,4.6,75,0.00,,,0.00,14.00,VWS V14.01,2013-07-19 01:05:00,
2013-07-18 20:07:00,85.5,76.7,29.98,SSW,196,2.3,5.8,75,0.00,,,0.00,12.00,VWS V14.01,2013-07-19 01:07:00,
2013-07-18 20:08:00,85.5,76.7,29.97,SSW,196,2.3,2.3,75,0.00,,,0.00,12.00,VWS V14.01,2013-07-19 01:08:00,
2013-07-18 20:09:00,85.5,76.3,29.98,SW,220,3.4,3.4,74,0.00,,,0.00,11.00,VWS V14.01,2013-07-19 01:09:00,
2013-07-18 20:10:00,85.5,76.7,29.98,SSW,211,1.1,5.8,75,0.00,,,0.00,11.00,VWS V14.01,2013-07-19 01:10:00,
2013-07-18 20:11:00,85.5,76.7,29.98,South,176,4.6,6.9,75,0.00,,,0.00,9.00,VWS V14.01,2013-07-19 01:11:00,
2013-07-18 20:13:00,85.4,76.2,29.98,South,191,3.4,4.6,74,0.00,,,0.00,9.00,VWS V14.01,2013-07-19 01:13:00,
2013-07-18 20:14:00,85.4,76.6,29.98,South,177,0.0,2.3,75,0.00,,,0.00,9.00,VWS V14.01,2013-07-19 01:14:00,
2013-07-18 20:15:00,85.4,76.2,29.97,South,187,3.4,4.6,74,0.00,,,0.00,7.00,VWS V14.01,2013-07-19 01:15:00,
2013-07-18 20:16:00,85.4,76.6,29.98,SSW,202,5.8,5.8,75,0.00,,,0.00,7.00,VWS V14.01,2013-07-19 01:16:00,
2013-07-18 20:17:00,85.3,76.5,29.98,SSW,201,2.3,5.8,75,0.00,,,0.00,7.00,VWS V14.01,2013-07-19 01:17:00,
2013-07-18 20:18:00,85.3,76.5,29.97,SSW,194,4.6,4.6,75,0.00,,,0.00,7.00,VWS V14.01,2013-07-19 01:18:00,
2013-07-18 20:20:00,85.2,76.4,29.98,SSW,197,4.6,4.6,75,0.00,,,0.00,5.00,VWS V14.01,2013-07-19 01:20:00,
2013-07-18 20:21:00,85.1,76.3,29.97,South,181,3.4,4.6,75,0.00,,,0.00,5.00,VWS V14.01,2013-07-19 01:21:00,
2013-07-18 20:22:00,85.0,76.2,29.98,SSW,196,5.8,5.8,75,0.00,,,0.00,5.00,VWS V14.01,2013-07-19 01:22:00,
2013-07-18 20:25:00,85.0,76.2,29.98,SSW,202,5.8,5.8,75,0.00,,,0.00,5.00,VWS V14.01,2013-07-19 01:25:00,
2013-07-18 20:26:00,84.9,76.1,29.98,SW,218,4.6,8.1,75,0.00,,,0.00,0.00,VWS V14.01,2013-07-19 01:26:00,
2013-07-18 20:27:00,84.9,76.1,29.98,SSW,195,4.6,5.8,75,0.00,,,0.00,0.00,VWS V14.01,2013-07-19 01:27:00,
2013-07-18 20:28:00,84.9,76.1,29.98,South,189,3.4,8.1,75,0.00,,,0.00,0.00,VWS V14.01,2013-07-19 01:28:00,
2013-07-18 20:30:00,84.9,76.1,29.98,South,189,0.0,3.4,75,0.00,,,0.00,0.00,VWS V14.01,2013-07-19 01:30:00,
2013-07-18 20:31:00,84.8,76.4,29.98,SSW,213,4.6,4.6,76,0.00,,,0.00,0.00,VWS V14.01,2013-07-19 01:31:00,
2013-07-18 20:32:00,84.7,75.9,29.98,SSW,201,3.4,4.6,75,0.00,,,0.00,0.00,VWS V14.01,2013-07-19 01:32:00,
2013-07-18 20:34:00,84.6,76.2,29.98,SSW,204,2.3,3.4,76,0.00,,,0.00,0.00,VWS V14.01,2013-07-19 01:34:00,
2013-07-18 20:35:00,84.5,76.1,29.98,SW,231,4.6,5.8,76,0.00,,,0.00,0.00,VWS V14.01,2013-07-19 01:35:00,
2013-07-18 20:38:00,84.3,76.3,29.98,South,187,6.9,6.9,77,0.00,,,0.00,0.00,VWS V14.01,2013-07-19 01:38:00,
2013-07-18 20:39:00,84.3,76.3,29.98,South,183,1.1,5.8,77,0.00,,,0.00,0.00,VWS V14.01,2013-07-19 01:39:00,
2013-07-18 20:41:00,84.2,76.2,29.98,SSW,199,3.4,4.6,77,0.00,,,0.00,0.00,VWS V14.01,2013-07-19 01:41:00,
2013-07-18 20:43:00,84.1,76.1,29.98,South,181,4.6,8.1,77,0.00,,,0.00,0.00,VWS V14.01,2013-07-19 01:43:00,
2013-07-18 20:44:00,84.1,76.1,29.98,SSW,207,4.6,8.1,77,0.00,,,0.00,0.00,VWS V14.01,2013-07-19 01:44:00,
2013-07-18 20:45:00,84.0,76.0,29.98,SW,220,2.3,4.6,77,0.00,,,0.00,0.00,VWS V14.01,2013-07-19 01:45:00,
2013-07-18 20:46:00,83.9,76.3,29.98,WSW,238,5.8,6.9,78,0.00,,,0.00,0.00,VWS V14.01,2013-07-19 01:46:00,
2013-07-18 20:49:00,83.7,76.1,29.97,SSW,204,5.8,8.1,78,0.00,,,0.00,0.00,VWS V14.01,2013-07-19 01:49:00,
2013-07-18 20:50:00,83.6,76.0,29.97,SW,222,5.8,5.8,78,0.00,,,0.00,0.00,VWS V14.01,2013-07-19 01:50:00,
2013-07-18 20:52:00,83.6,76.0,29.97,SSW,195,3.4,3.4,78,0.00,,,0.00,0.00,VWS V14.01,2013-07-19 01:52:00,
2013-07-18 20:54:00,83.4,76.2,29.97,SW,216,5.8,8.1,79,0.00,,,0.00,0.00,VWS V14.01,2013-07-19 01:54:00,
2013-07-18 20:56:00,83.3,76.1,29.98,SW,222,3.4,4.6,79,0.00,,,0.00,0.00,VWS V14.01,2013-07-19 01:56:00,
2013-07-18 20:57:00,83.2,76.0,29.98,SSW,207,2.3,5.8,79,0.00,,,0.00,0.00,VWS V14.01,2013-07-19 01:57:00,
2013-07-18 21:01:00,83.1,75.9,29.98,SSW,204,5.8,5.8,79,0.00,,,0.00,0.00,VWS V14.01,2013-07-19 02:01:00,
2013-07-18 21:02:00,83.1,75.9,29.98,SSW,210,3.4,4.6,79,0.00,,,0.00,0.00,VWS V14.01,2013-07-19 02:02:00,
2013-07-18 21:03:00,83.0,75.8,29.98,SSW,210,2.3,3.4,79,0.00,,,0.00,0.00,VWS V14.01,2013-07-19 02:03:00,
2013-07-18 21:06:00,83.1,75.9,29.98,SW,215,8.1,8.1,79,0.00,,,0.00,0.00,VWS V14.01,2013-07-19 02:06:00,
2013-07-18 21:08:00,83.1,75.9,29.98,West,267,5.8,5.8,79,0.00,,,0.00,0.00,VWS V14.01,2013-07-19 02:08:00,
2013-07-18 21:09:00,83.1,75.9,29.98,WSW,242,2.3,3.4,79,0.00,,,0.00,0.00,VWS V14.01,2013-07-19 02:09:00,
2013-07-18 21:11:00,83.0,75.8,29.98,WSW,241,8.1,8.1,79,0.00,,,0.00,0.00,VWS V14.01,2013-07-19 02:11:00,
2013-07-18 21:13:00,82.9,76.1,29.98,WSW,250,1.1,1.1,80,0.00,,,0.00,0.00,VWS V14.01,2013-07-19 02:13:00,
2013-07-18 21:15:00,82.9,75.7,29.98,WSW,252,3.4,5.8,79,0.00,,,0.00,0.00,VWS V14.01,2013-07-19 02:15:00,
2013-07-18 21:16:00,82.9,76.1,29.98,SW,224,4.6,5.8,80,0.00,,,0.00,0.00,VWS V14.01,2013-07-19 02:16:00,
2013-07-18 21:17:00,82.9,76.1,29.98,SW,226,3.4,4.6,80,0.00,,,0.00,0.00,VWS V14.01,2013-07-19 02:17:00,
2013-07-18 21:19:00,82.9,76.1,29.98,SW,214,3.4,5.8,80,0.00,,,0.00,0.00,VWS V14.01,2013-07-19 02:19:00,
2013-07-18 21:20:00,82.8,76.0,29.98,SW,215,4.6,4.6,80,0.00,,,0.00,0.00,VWS V14.01,2013-07-19 02:20:00,
2013-07-18 21:22:00,82.7,75.9,29.98,SSW,200,2.3,4.6,80,0.00,,,0.00,0.00,VWS V14.01,2013-07-19 02:22:00,
2013-07-18 21:25:00,82.7,75.9,29.98,SSW,208,6.9,6.9,80,0.00,,,0.00,0.00,VWS V14.01,2013-07-19 02:25:00,
2013-07-18 21:26:00,82.7,75.9,29.98,SW,224,3.4,6.9,80,0.00,,,0.00,0.00,VWS V14.01,2013-07-19 02:26:00,
2013-07-18 21:27:00,82.7,75.9,29.98,South,187,5.8,8.1,80,0.00,,,0.00,0.00,VWS V14.01,2013-07-19 02:27:00,
2013-07-18 21:31:00,82.7,75.9,29.98,SW,214,6.9,6.9,80,0.00,,,0.00,0.00,VWS V14.01,2013-07-19 02:31:00,
2013-07-18 21:32:00,82.7,75.9,29.98,SW,220,5.8,5.8,80,0.00,,,0.00,0.00,VWS V14.01,2013-07-19 02:32:00,
2013-07-18 21:36:00,82.8,76.0,29.98,SSW,197,2.3,3.4,80,0.00,,,0.00,0.00,VWS V14.01,2013-07-19 02:36:00,
2013-07-18 21:37:00,82.8,76.0,29.98,SW,220,4.6,5.8,80,0.00,,,0.00,0.00,VWS V14.01,2013-07-19 02:37:00,
2013-07-18 21:38:00,82.8,76.0,29.98,SSW,212,3.4,5.8,80,0.00,,,0.00,0.00,VWS V14.01,2013-07-19 02:38:00,
2013-07-18 21:42:00,82.9,76.1,29.98,SSW,208,2.3,6.9,80,0.00,,,0.00,0.00,VWS V14.01,2013-07-19 02:42:00,
2013-07-18 21:43:00,82.9,76.1,29.98,SSW,213,3.4,3.4,80,0.00,,,0.00,0.00,VWS V14.01,2013-07-19 02:43:00,
2013-07-18 21:44:00,82.9,76.1,29.98,SW,217,5.8,9.2,80,0.00,,,0.00,0.00,VWS V14.01,2013-07-19 02:44:00,
2013-07-18 21:47:00,82.9,75.7,29.98,SSW,207,5.8,5.8,79,0.00,,,0.00,0.00,VWS V14.01,2013-07-19 02:47:00,
2013-07-18 21:48:00,82.8,76.0,29.98,SW,214,4.6,6.9,80,0.00,,,0.00,0.00,VWS V14.01,2013-07-19 02:48:00,
2013-07-18 21:49:00,82.8,76.0,29.98,SSW,208,4.6,4.6,80,0.00,,,0.00,0.00,VWS V14.01,2013-07-19 02:49:00,
2013-07-18 21:52:00,82.5,75.7,29.98,SSW,204,3.4,6.9,80,0.00,,,0.00,0.00,VWS V14.01,2013-07-19 02:52:00,
2013-07-18 21:54:00,82.5,75.7,29.98,SSW,204,3.4,5.8,80,0.00,,,0.00,0.00,VWS V14.01,2013-07-19 02:54:00,
2013-07-18 21:55:00,82.4,75.6,29.98,SW,214,9.2,9.2,80,0.00,,,0.00,0.00,VWS V14.01,2013-07-19 02:55:00,
2013-07-18 21:58:00,82.4,75.6,29.98,SW,225,1.1,2.3,80,0.00,,,0.00,0.00,VWS V14.01,2013-07-19 02:58:00,
2013-07-18 21:59:00,82.4,75.6,29.98,SSW,195,3.4,4.6,80,0.00,,,0.00,0.00,VWS V14.01,2013-07-19 02:59:00,
2013-07-18 22:00:00,82.4,75.6,29.98,SSW,202,4.6,5.8,80,0.00,,,0.00,0.00,VWS V14.01,2013-07-19 03:00:00,
2013-07-18 22:01:00,82.4,75.6,29.98,South,187,4.6,5.8,80,0.00,,,0.00,0.00,VWS V14.01,2013-07-19 03:01:00,
2013-07-18 22:04:00,82.3,75.5,29.98,SW,236,4.6,4.6,80,0.00,,,0.00,0.00,VWS V14.01,2013-07-19 03:04:00,
2013-07-18 22:06:00,82.2,75.4,29.98,WSW,250,3.4,3.4,80,0.00,,,0.00,0.00,VWS V14.01,2013-07-19 03:06:00,
2013-07-18 22:09:00,82.1,75.3,29.98,South,185,3.4,5.8,80,0.00,,,0.00,0.00,VWS V14.01,2013-07-19 03:09:00,
2013-07-18 22:11:00,82.1,75.7,29.98,SW,214,2.3,2.3,81,0.00,,,0.00,0.00,VWS V14.01,2013-07-19 03:11:00,
2013-07-18 22:12:00,82.0,75.2,29.98,SW,233,4.6,4.6,80,0.00,,,0.00,0.00,VWS V14.01,2013-07-19 03:12:00,
2013-07-18 22:14:00,82.0,75.2,29.98,SSW,210,3.4,6.9,80,0.00,,,0.00,0.00,VWS V14.01,2013-07-19 03:14:00,
2013-07-18 22:15:00,82.0,75.2,29.98,SW,229,4.6,5.8,80,0.00,,,0.00,0.00,VWS V14.01,2013-07-19 03:15:00,
2013-07-18 22:16:00,82.0,75.2,29.98,SSW,193,4.6,4.6,80,0.00,,,0.00,0.00,VWS V14.01,2013-07-19 03:16:00,
2013-07-18 22:17:00,82.0,75.2,29.98,SSW,206,3.4,4.6,80,0.00,,,0.00,0.00,VWS V14.01,2013-07-19 03:17:00,
2013-07-18 22:20:00,81.9,75.1,29.98,South,189,3.4,5.8,80,0.00,,,0.00,0.00,VWS V14.01,2013-07-19 03:20:00,
2013-07-18 22:21:00,81.8,75.0,29.98,South,178,1.1,5.8,80,0.00,,,0.00,0.00,VWS V14.01,2013-07-19 03:21:00,
2013-07-18 22:22:00,81.8,75.0,29.98,SSW,207,5.8,8.1,80,0.00,,,0.00,0.00,VWS V14.01,2013-07-19 03:22:00,
2013-07-18 22:24:00,81.7,74.9,29.98,SSW,199,4.6,5.8,80,0.00,,,0.00,0.00,VWS V14.01,2013-07-19 03:24:00,
2013-07-18 22:25:00,81.7,74.9,29.98,SW,218,2.3,3.4,80,0.00,,,0.00,0.00,VWS V14.01,2013-07-19 03:25:00,
2013-07-18 22:26:00,81.7,74.9,29.98,SW,221,3.4,3.4,80,0.00,,,0.00,0.00,VWS V14.01,2013-07-19 03:26:00,
2013-07-18 22:29:00,81.6,74.8,29.98,SSW,193,0.0,2.3,80,0.00,,,0.00,0.00,VWS V14.01,2013-07-19 03:29:00,
2013-07-18 22:30:00,81.6,74.8,29.98,SW,218,2.3,5.8,80,0.00,,,0.00,0.00,VWS V14.01,2013-07-19 03:30:00,
2013-07-18 22:31:00,81.6,74.8,29.98,SW,229,2.3,6.9,80,0.00,,,0.00,0.00,VWS V14.01,2013-07-19 03:31:00,
2013-07-18 22:33:00,81.5,74.7,29.98,SSW,208,2.3,3.4,80,0.00,,,0.00,0.00,VWS V14.01,2013-07-19 03:33:00,
2013-07-18 22:35:00,81.4,74.6,29.98,SW,215,3.4,6.9,80,0.00,,,0.00,0.00,VWS V14.01,2013-07-19 03:35:00,
2013-07-18 22:37:00,81.3,74.5,29.98,South,189,5.8,5.8,80,0.00,,,0.00,0.00,VWS V14.01,2013-07-19 03:37:00,
2013-07-18 22:38:00,81.3,74.5,29.98,SSW,206,2.3,6.9,80,0.00,,,0.00,0.00,VWS V14.01,2013-07-19 03:38:00,
2013-07-18 22:40:00,81.2,74.4,29.98,SW,225,2.3,3.4,80,0.00,,,0.00,0.00,VWS V14.01,2013-07-19 03:40:00,
2013-07-18 22:41:00,81.2,74.4,29.98,SW,225,0.0,2.3,80,0.00,,,0.00,0.00,VWS V14.01,2013-07-19 03:41:00,
2013-07-18 22:43:00,81.1,74.7,29.98,SSW,199,3.4,3.4,81,0.00,,,0.00,0.00,VWS V14.01,2013-07-19 03:43:00,
2013-07-18 22:44:00,81.1,74.7,29.98,SW,218,1.1,1.1,81,0.00,,,0.00,0.00,VWS V14.01,2013-07-19 03:44:00,
2013-07-18 22:46:00,81.0,74.6,29.98,SSW,197,3.4,6.9,81,0.00,,,0.00,0.00,VWS V14.01,2013-07-19 03:46:00,
2013-07-18 22:47:00,81.0,74.6,29.98,SSW,199,3.4,3.4,81,0.00,,,0.00,0.00,VWS V14.01,2013-07-19 03:47:00,
2013-07-18 22:48:00,81.0,74.6,29.98,WSW,256,1.1,4.6,81,0.00,,,0.00,0.00,VWS V14.01,2013-07-19 03:48:00,
2013-07-18 22:49:00,80.9,74.5,29.98,SSW,205,3.4,5.8,81,0.00,,,0.00,0.00,VWS V14.01,2013-07-19 03:49:00,
2013-07-18 22:51:00,80.9,74.5,29.98,SW,224,1.1,5.8,81,0.00,,,0.00,0.00,VWS V14.01,2013-07-19 03:51:00,
2013-07-18 22:52:00,80.9,74.5,29.98,WSW,251,1.1,5.8,81,0.00,,,0.00,0.00,VWS V14.01,2013-07-19 03:52:00,
2013-07-18 22:54:00,80.8,74.4,29.98,SSW,204,4.6,5.8,81,0.00,,,0.00,0.00,VWS V14.01,2013-07-19 03:54:00,
2013-07-18 22:57:00,80.8,74.4,29.98,SSW,205,3.4,3.4,81,0.00,,,0.00,0.00,VWS V14.01,2013-07-19 03:57:00,
2013-07-18 22:58:00,80.8,74.4,29.98,SSW,209,8.1,8.1,81,0.00,,,0.00,0.00,VWS V14.01,2013-07-19 03:58:00,
2013-07-18 22:59:00,80.7,74.3,29.98,SSW,197,5.8,6.9,81,0.00,,,0.00,0.00,VWS V14.01,2013-07-19 03:59:00,
2013-07-18 23:01:00,80.7,74.3,29.98,SSW,206,4.6,5.8,81,0.00,,,0.00,0.00,VWS V14.01,2013-07-19 04:01:00,
2013-07-18 23:06:00,80.5,74.1,29.98,SSW,199,0.0,1.1,81,0.00,,,0.00,0.00,VWS V14.01,2013-07-19 04:06:00,
2013-07-18 23:07:00,80.5,74.1,29.98,SSW,202,3.4,4.6,81,0.00,,,0.00,0.00,VWS V14.01,2013-07-19 04:07:00,
2013-07-18 23:12:00,80.4,74.4,29.98,SW,215,8.1,8.1,82,0.00,,,0.00,0.00,VWS V14.01,2013-07-19 04:12:00,
2013-07-18 23:17:00,80.3,74.3,29.98,SSW,210,0.0,4.6,82,0.00,,,0.00,0.00,VWS V14.01,2013-07-19 04:17:00,
2013-07-18 23:18:00,80.3,74.3,29.98,SW,235,4.6,5.8,82,0.00,,,0.00,0.00,VWS V14.01,2013-07-19 04:18:00,
2013-07-18 23:19:00,80.3,74.3,29.98,SW,230,4.6,6.9,82,0.00,,,0.00,0.00,VWS V14.01,2013-07-19 04:19:00,
2013-07-18 23:23:00,80.3,73.9,29.97,SW,218,0.0,3.4,81,0.00,,,0.00,0.00,VWS V14.01,2013-07-19 04:23:00,
2013-07-18 23:24:00,80.3,73.9,29.97,SW,221,5.8,5.8,81,0.00,,,0.00,0.00,VWS V14.01,2013-07-19 04:24:00,
2013-07-18 23:26:00,80.3,74.3,29.98,SSW,202,5.8,8.1,82,0.00,,,0.00,0.00,VWS V14.01,2013-07-19 04:26:00,
2013-07-18 23:28:00,80.2,74.2,29.98,WSW,254,4.6,5.8,82,0.00,,,0.00,0.00,VWS V14.01,2013-07-19 04:28:00,
2013-07-18 23:29:00,80.3,74.3,29.98,WSW,243,1.1,1.1,82,0.00,,,0.00,0.00,VWS V14.01,2013-07-19 04:29:00,
2013-07-18 23:33:00,80.2,73.8,29.98,SW,228,4.6,8.1,81,0.00,,,0.00,0.00,VWS V14.01,2013-07-19 04:33:00,
2013-07-18 23:34:00,80.2,74.2,29.98,South,177,4.6,5.8,82,0.00,,,0.00,0.00,VWS V14.01,2013-07-19 04:34:00,
2013-07-18 23:35:00,80.2,74.2,29.97,SSW,207,5.8,5.8,82,0.00,,,0.00,0.00,VWS V14.01,2013-07-19 04:35:00,
2013-07-18 23:38:00,80.1,74.1,29.97,SSW,201,1.1,4.6,82,0.00,,,0.00,0.00,VWS V14.01,2013-07-19 04:38:00,
2013-07-18 23:39:00,80.0,74.0,29.98,SW,215,3.4,5.8,82,0.00,,,0.00,0.00,VWS V14.01,2013-07-19 04:39:00,
2013-07-18 23:40:00,80.0,74.0,29.98,SSW,208,4.6,6.9,82,0.00,,,0.00,0.00,VWS V14.01,2013-07-19 04:40:00,
2013-07-18 23:41:00,80.0,74.0,29.97,SSW,193,4.6,5.8,82,0.00,,,0.00,0.00,VWS V14.01,2013-07-19 04:41:00,
2013-07-18 23:44:00,80.0,74.0,29.98,West,280,3.4,3.4,82,0.00,,,0.00,0.00,VWS V14.01,2013-07-19 04:44:00,
2013-07-18 23:45:00,80.0,74.0,29.98,West,259,0.0,4.6,82,0.00,,,0.00,0.00,VWS V14.01,2013-07-19 04:45:00,
2013-07-18 23:46:00,79.9,73.9,29.98,SSW,213,2.3,2.3,82,0.00,,,0.00,0.00,VWS V14.01,2013-07-19 04:46:00,
2013-07-18 23:49:00,79.9,73.9,29.98,SW,222,2.3,8.1,82,0.00,,,0.00,0.00,VWS V14.01,2013-07-19 04:49:00,
2013-07-18 23:50:00,79.9,73.9,29.98,SW,216,8.1,8.1,82,0.00,,,0.00,0.00,VWS V14.01,2013-07-19 04:50:00,
2013-07-18 23:51:00,79.8,73.8,29.98,SW,222,4.6,6.9,82,0.00,,,0.00,0.00,VWS V14.01,2013-07-19 04:51:00,
2013-07-18 23:52:00,79.8,73.8,29.97,SSE,164,5.8,9.2,82,0.00,,,0.00,0.00,VWS V14.01,2013-07-19 04:52:00,
2013-07-18 23:55:00,79.8,73.8,29.97,SW,220,6.9,6.9,82,0.00,,,0.00,0.00,VWS V14.01,2013-07-19 04:55:00,
2013-07-18 23:56:00,79.8,73.8,29.97,SSW,212,1.1,5.8,82,0.00,,,0.00,0.00,VWS V14.01,2013-07-19 04:56:00,
2013-07-18 23:58:00,79.8,73.8,29.97,SSW,209,4.6,4.6,82,0.00,,,0.00,0.00,VWS V14.01,2013-07-19 04:58:00,